Observation data for Junction on 11/08/2019      Previous  Date       Current Mesonet Observations  Soil Data  Daily Summary Page  Observations in Plain Language
KJU1 080600Z 01007KT 03/03 A3042 RMK A01 T00330029  RH  098%=      5-min Rain = 0
KJU1 080601Z 00008KT 03/03 A3042 RMK A01 T00330029  RH  098%=      5-min Rain = 0
KJU1 080602Z 02008KT 03/03 A3042 RMK A01 T00320029  RH  097%=      5-min Rain = 0
KJU1 080603Z 01006KT 03/03 A3042 RMK A01 T00330029  RH  097%=      5-min Rain = 0
KJU1 080604Z 01004KT 03/03 A3042 RMK A01 T00320029  RH  097%=      5-min Rain = 0
KJU1 080605Z 02005KT 03/03 A3042 RMK A01 T00330029  RH  098%=      5-min Rain = 0
KJU1 080606Z 01005KT 03/03 A3042 RMK A01 T00330030  RH  098%=      5-min Rain = 0
KJU1 080607Z 01006KT 03/03 A3042 RMK A01 T00340030  RH  098%=      5-min Rain = 0
KJU1 080608Z 02005KT 03/03 A3042 RMK A01 T00340030  RH  098%=      5-min Rain = 0
KJU1 080609Z 01006KT 03/03 A3042 RMK A01 T00330030  RH  098%=      5-min Rain = 0
KJU1 080610Z 01007KT 03/03 A3042 RMK A01 T00340030  RH  098%=      5-min Rain = 0
KJU1 080611Z 02006KT 03/03 A3041 RMK A01 T00330030  RH  098%=      5-min Rain = 0.01
KJU1 080612Z 01005KT 03/03 A3041 RMK A01 T00330030  RH  098%=      5-min Rain = 0
KJU1 080613Z 01005KT 03/03 A3041 RMK A01 T00330030  RH  098%=      5-min Rain = 0
KJU1 080614Z 02006KT 03/03 A3041 RMK A01 T00330030  RH  098%=      5-min Rain = 0
KJU1 080615Z 02005KT 03/03 A3041 RMK A01 T00340030  RH  098%=      5-min Rain = 0
KJU1 080616Z 02005KT 03/03 A3041 RMK A01 T00340030  RH  098%=      5-min Rain = 0
KJU1 080617Z 00005KT 03/03 A3041 RMK A01 T00340030  RH  098%=      5-min Rain = 0
KJU1 080618Z 02007KT 03/03 A3041 RMK A01 T00330030  RH  098%=      5-min Rain = 0
KJU1 080619Z 01006KT 03/03 A3041 RMK A01 T00330030  RH  098%=      5-min Rain = 0
KJU1 080620Z 00004KT 03/03 A3041 RMK A01 T00340031  RH  098%=      5-min Rain = 0
KJU1 080621Z 00006KT 03/03 A3041 RMK A01 T00340031  RH  098%=      5-min Rain = 0
KJU1 080622Z 35004KT 03/03 A3041 RMK A01 T00340031  RH  098%=      5-min Rain = 0
KJU1 080623Z 35004KT 03/03 A3041 RMK A01 T00340031  RH  098%=      5-min Rain = 0.01
KJU1 080624Z 35005KT 03/03 A3041 RMK A01 T00340031  RH  098%=      5-min Rain = 0
KJU1 080625Z 36006KT 03/03 A3041 RMK A01 T00340031  RH  098%=      5-min Rain = 0
KJU1 080626Z 35005KT 03/03 A3041 RMK A01 T00340031  RH  098%=      5-min Rain = 0
KJU1 080627Z 00004KT 03/03 A3041 RMK A01 T00340031  RH  098%=      5-min Rain = 0
KJU1 080628Z 35005KT 03/03 A3041 RMK A01 T00340031  RH  098%=      5-min Rain = 0
KJU1 080629Z 36006KT 03/03 A3041 RMK A01 T00340031  RH  098%=      5-min Rain = 0
KJU1 080630Z 00005KT 03/03 A3041 RMK A01 T00340031  RH  098%=      5-min Rain = 0
KJU1 080631Z 01005KT 03/03 A3041 RMK A01 T00340031  RH  098%=      5-min Rain = 0
KJU1 080632Z 02005KT 03/03 A3041 RMK A01 T00340031  RH  098%=      5-min Rain = 0
KJU1 080633Z 01005KT 03/03 A3041 RMK A01 T00340031  RH  098%=      5-min Rain = 0
KJU1 080634Z 00006KT 03/03 A3041 RMK A01 T00340031  RH  098%=      5-min Rain = 0
KJU1 080635Z 36006G11KT 03/03 A3041 RMK A01 T00340031  RH  098%=      5-min Rain = 0.01
KJU1 080636Z 01007KT 03/03 A304 RMK A01 T00340031  RH  098%=      5-min Rain = 0
KJU1 080637Z 36008KT 03/03 A304 RMK A01 T00340031  RH  098%=      5-min Rain = 0
KJU1 080638Z 01006KT 03/03 A304 RMK A01 T00340031  RH  098%=      5-min Rain = 0
KJU1 080639Z 01007KT 03/03 A304 RMK A01 T00340031  RH  098%=      5-min Rain = 0
KJU1 080640Z 01006KT 03/03 A304 RMK A01 T00340031  RH  098%=      5-min Rain = 0
KJU1 080641Z 00009KT 03/03 A304 RMK A01 T00340031  RH  098%=      5-min Rain = 0
KJU1 080642Z 01005KT 03/03 A304 RMK A01 T00340031  RH  098%=      5-min Rain = 0.01
KJU1 080643Z 00005KT 03/03 A304 RMK A01 T00340031  RH  098%=      5-min Rain = 0
KJU1 080644Z 35005KT 03/03 A3041 RMK A01 T00340031  RH  098%=      5-min Rain = 0
KJU1 080645Z 00006KT 03/03 A3041 RMK A01 T00340031  RH  098%=      5-min Rain = 0
KJU1 080646Z 35007KT 03/03 A3041 RMK A01 T00340030  RH  098%=      5-min Rain = 0
KJU1 080647Z 35007KT 03/03 A3041 RMK A01 T00340031  RH  098%=      5-min Rain = 0
KJU1 080648Z 00007KT 03/03 A3041 RMK A01 T00340030  RH  098%=      5-min Rain = 0
KJU1 080649Z 36005KT 03/03 A3041 RMK A01 T00340030  RH  098%=      5-min Rain = 0
KJU1 080650Z 00005KT 03/03 A3041 RMK A01 T00340030  RH  098%=      5-min Rain = 0
KJU1 080651Z 36005KT 03/03 A3041 RMK A01 T00340030  RH  098%=      5-min Rain = 0
KJU1 080652Z 35006KT 03/03 A3041 RMK A01 T00340030  RH  098%=      5-min Rain = 0
KJU1 080653Z 01005KT 03/03 A3041 RMK A01 T00340030  RH  098%=      5-min Rain = 0
KJU1 080654Z 36006KT 03/03 A3041 RMK A01 T00340031  RH  098%=      5-min Rain = 0
KJU1 080655Z 36005KT 03/03 A3041 RMK A01 T00340030  RH  097%=      5-min Rain = 0
KJU1 080656Z 00005KT 03/03 A3041 RMK A01 T00340031  RH  098%=      5-min Rain = 0
KJU1 080657Z 36005KT 03/03 A3041 RMK A01 T00340031  RH  098%=      5-min Rain = 0
KJU1 080658Z 36006KT 03/03 A3041 RMK A01 T00340031  RH  097%=      5-min Rain = 0
KJU1 080659Z 34005KT 03/03 A3041 RMK A01 T00340031  RH  097%=      5-min Rain = 0
KJU1 080700Z 36005KT 03/03 A3041 RMK A01 T00340031  RH  097%=      5-min Rain = 0
KJU1 080701Z 34004KT 03/03 A3041 RMK A01 T00340031  RH  097%=      5-min Rain = 0
KJU1 080702Z 35006KT 03/03 A3041 RMK A01 T00340031  RH  098%=      5-min Rain = 0
KJU1 080703Z 36006KT 03/03 A3041 RMK A01 T00340031  RH  097%=      5-min Rain = 0
KJU1 080704Z 35008KT 03/03 A3041 RMK A01 T00340031  RH  097%=      5-min Rain = 0
KJU1 080705Z 36006KT 03/03 A3041 RMK A01 T00340031  RH  097%=      5-min Rain = 0
KJU1 080706Z 01007KT 03/03 A3041 RMK A01 T00340031  RH  097%=      5-min Rain = 0
KJU1 080707Z 35007KT 03/03 A3041 RMK A01 T00340031  RH  097%=      5-min Rain = 0
KJU1 080708Z 36008KT 03/03 A3041 RMK A01 T00340030  RH  097%=      5-min Rain = 0
KJU1 080709Z 34006KT 03/03 A3041 RMK A01 T00340031  RH  097%=      5-min Rain = 0
KJU1 080710Z 35005KT 04/03 A3041 RMK A01 T00350031  RH  097%=      5-min Rain = 0
KJU1 080711Z 36006KT 03/03 A3041 RMK A01 T00340031  RH  097%=      5-min Rain = 0
KJU1 080712Z 01005KT 03/03 A3041 RMK A01 T00340031  RH  097%=      5-min Rain = 0
KJU1 080713Z 00006KT 03/03 A3042 RMK A01 T00340031  RH  097%=      5-min Rain = 0
KJU1 080714Z 01007KT 03/03 A3042 RMK A01 T00340031  RH  097%=      5-min Rain = 0
KJU1 080715Z 00008KT 03/03 A3042 RMK A01 T00340030  RH  097%=      5-min Rain = 0
KJU1 080716Z 36008KT 03/03 A3042 RMK A01 T00340030  RH  097%=      5-min Rain = 0
KJU1 080717Z 35006KT 03/03 A3042 RMK A01 T00340030  RH  097%=      5-min Rain = 0
KJU1 080718Z 35005KT 03/03 A3041 RMK A01 T00340030  RH  097%=      5-min Rain = 0
KJU1 080719Z 00005KT 03/03 A3041 RMK A01 T00340030  RH  097%=      5-min Rain = 0.01
KJU1 080720Z 36005KT 03/03 A3041 RMK A01 T00340031  RH  097%=      5-min Rain = 0
KJU1 080721Z 01006KT 03/03 A3041 RMK A01 T00340030  RH  097%=      5-min Rain = 0
KJU1 080722Z 01006KT 03/03 A3041 RMK A01 T00340030  RH  097%=      5-min Rain = 0
KJU1 080723Z 01006KT 03/03 A3041 RMK A01 T00340030  RH  097%=      5-min Rain = 0
KJU1 080724Z 00006KT 03/03 A3041 RMK A01 T00340030  RH  097%=      5-min Rain = 0
KJU1 080725Z 36005KT 03/03 A3041 RMK A01 T00340030  RH  098%=      5-min Rain = 0
KJU1 080726Z 35004KT 03/03 A3041 RMK A01 T00340030  RH  098%=      5-min Rain = 0
KJU1 080727Z 01006KT 03/03 A3041 RMK A01 T00340030  RH  098%=      5-min Rain = 0
KJU1 080728Z 36006KT 03/03 A3041 RMK A01 T00340031  RH  098%=      5-min Rain = 0
KJU1 080729Z 36006KT 03/03 A3041 RMK A01 T00340030  RH  098%=      5-min Rain = 0
KJU1 080730Z 01008KT 03/03 A3041 RMK A01 T00340031  RH  098%=      5-min Rain = 0
KJU1 080731Z 01007KT 03/03 A3041 RMK A01 T00340031  RH  098%=      5-min Rain = 0
KJU1 080732Z 01008KT 03/03 A3041 RMK A01 T00340030  RH  098%=      5-min Rain = 0
KJU1 080733Z 00008KT 03/03 A3041 RMK A01 T00340030  RH  098%=      5-min Rain = 0
KJU1 080734Z 01007KT 03/03 A3041 RMK A01 T00340031  RH  098%=      5-min Rain = 0
KJU1 080735Z 01008KT 03/03 A3041 RMK A01 T00340031  RH  098%=      5-min Rain = 0
KJU1 080736Z 01007KT 03/03 A3041 RMK A01 T00340030  RH  098%=      5-min Rain = 0
KJU1 080737Z 01006KT 03/03 A3041 RMK A01 T00340030  RH  098%=      5-min Rain = 0
KJU1 080738Z 02007KT 03/03 A3041 RMK A01 T00340030  RH  098%=      5-min Rain = 0
KJU1 080739Z 02007KT 03/03 A3041 RMK A01 T00340030  RH  098%=      5-min Rain = 0
KJU1 080740Z 02008KT 03/03 A3041 RMK A01 T00340030  RH  098%=      5-min Rain = 0
KJU1 080741Z 01006KT 03/03 A3041 RMK A01 T00340030  RH  098%=      5-min Rain = 0
KJU1 080742Z 01006KT 03/03 A3041 RMK A01 T00340031  RH  098%=      5-min Rain = 0
KJU1 080743Z 01006KT 03/03 A3041 RMK A01 T00340031  RH  098%=      5-min Rain = 0
KJU1 080744Z 01008KT 03/03 A3041 RMK A01 T00340031  RH  098%=      5-min Rain = 0
KJU1 080745Z 01006KT 03/03 A3041 RMK A01 T00340031  RH  098%=      5-min Rain = 0
KJU1 080746Z 02007KT 03/03 A3041 RMK A01 T00330030  RH  098%=      5-min Rain = 0
KJU1 080747Z 01006KT 03/03 A3041 RMK A01 T00330030  RH  098%=      5-min Rain = 0
KJU1 080748Z 36004KT 03/03 A3041 RMK A01 T00340030  RH  098%=      5-min Rain = 0
KJU1 080749Z 35006KT 03/03 A3041 RMK A01 T00340030  RH  098%=      5-min Rain = 0
KJU1 080750Z 00005KT 03/03 A3041 RMK A01 T00330030  RH  098%=      5-min Rain = 0
KJU1 080751Z 36005KT 03/03 A3041 RMK A01 T00340031  RH  098%=      5-min Rain = 0
KJU1 080752Z 35007KT 03/03 A3041 RMK A01 T00340031  RH  098%=      5-min Rain = 0
KJU1 080753Z 33006KT 03/03 A3041 RMK A01 T00340031  RH  098%=      5-min Rain = 0.01
KJU1 080754Z 36007KT 03/03 A3041 RMK A01 T00340031  RH  098%=      5-min Rain = 0
KJU1 080755Z 00007KT 03/03 A3041 RMK A01 T00340031  RH  098%=      5-min Rain = 0
KJU1 080756Z 36006KT 03/03 A3041 RMK A01 T00340031  RH  098%=      5-min Rain = 0
KJU1 080757Z 01008KT 03/03 A3041 RMK A01 T00340031  RH  098%=      5-min Rain = 0
KJU1 080758Z 01007KT 03/03 A3041 RMK A01 T00340031  RH  098%=      5-min Rain = 0
KJU1 080759Z 00007KT 03/03 A3041 RMK A01 T00340030  RH  098%=      5-min Rain = 0
KJU1 080800Z 36007KT 03/03 A3041 RMK A01 T00340031  RH  098%=      5-min Rain = 0
KJU1 080801Z 36006KT 03/03 A3041 RMK A01 T00340031  RH  098%=      5-min Rain = 0
KJU1 080802Z 36007KT 03/03 A3041 RMK A01 T00340031  RH  098%=      5-min Rain = 0
KJU1 080803Z 00005KT 03/03 A3041 RMK A01 T00340031  RH  098%=      5-min Rain = 0
KJU1 080804Z 00007KT 03/03 A3041 RMK A01 T00340030  RH  098%=      5-min Rain = 0
KJU1 080805Z 00006KT 03/03 A3041 RMK A01 T00340030  RH  098%=      5-min Rain = 0
KJU1 080806Z 01005KT 03/03 A3041 RMK A01 T00340031  RH  098%=      5-min Rain = 0
KJU1 080807Z 35007KT 03/03 A304 RMK A01 T00340030  RH  098%=      5-min Rain = 0
KJU1 080808Z 00007KT 03/03 A304 RMK A01 T00340031  RH  098%=      5-min Rain = 0
KJU1 080809Z 35006KT 03/03 A304 RMK A01 T00340031  RH  098%=      5-min Rain = 0
KJU1 080810Z 01006KT 03/03 A304 RMK A01 T00340031  RH  098%=      5-min Rain = 0
KJU1 080811Z 35006KT 03/03 A304 RMK A01 T00340030  RH  098%=      5-min Rain = 0
KJU1 080812Z 36007KT 03/03 A304 RMK A01 T00340030  RH  098%=      5-min Rain = 0
KJU1 080813Z 01006KT 03/03 A304 RMK A01 T00340030  RH  098%=      5-min Rain = 0
KJU1 080814Z 01007KT 03/03 A304 RMK A01 T00340031  RH  098%=      5-min Rain = 0
KJU1 080815Z 36005KT 03/03 A304 RMK A01 T00340030  RH  098%=      5-min Rain = 0
KJU1 080816Z 36008KT 03/03 A304 RMK A01 T00340031  RH  098%=      5-min Rain = 0
KJU1 080817Z 00007KT 03/03 A304 RMK A01 T00340030  RH  097%=      5-min Rain = 0
KJU1 080818Z 35005KT 03/03 A304 RMK A01 T00340030  RH  097%=      5-min Rain = 0
KJU1 080819Z 01005KT 03/03 A304 RMK A01 T00340030  RH  097%=      5-min Rain = 0.01
KJU1 080820Z 35006KT 03/03 A304 RMK A01 T00340030  RH  097%=      5-min Rain = 0
KJU1 080821Z 35005KT 03/03 A304 RMK A01 T00340030  RH  097%=      5-min Rain = 0
KJU1 080822Z 00005KT 03/03 A304 RMK A01 T00340031  RH  097%=      5-min Rain = 0
KJU1 080823Z 00006KT 03/03 A304 RMK A01 T00340030  RH  097%=      5-min Rain = 0
KJU1 080824Z 35006KT 03/03 A304 RMK A01 T00340031  RH  097%=      5-min Rain = 0
KJU1 080825Z 36008KT 03/03 A304 RMK A01 T00340030  RH  097%=      5-min Rain = 0
KJU1 080826Z 36007KT 03/03 A304 RMK A01 T00340030  RH  097%=      5-min Rain = 0
KJU1 080827Z 00004KT 03/03 A304 RMK A01 T00340030  RH  097%=      5-min Rain = 0
KJU1 080828Z 36006KT 03/03 A304 RMK A01 T00340030  RH  097%=      5-min Rain = 0
KJU1 080829Z 01004KT 03/03 A304 RMK A01 T00340030  RH  097%=      5-min Rain = 0
KJU1 080830Z 00004KT 03/03 A304 RMK A01 T00340030  RH  097%=      5-min Rain = 0.01
KJU1 080831Z 00004KT 03/03 A304 RMK A01 T00340030  RH  097%=      5-min Rain = 0
KJU1 080832Z 00007KT 03/03 A304 RMK A01 T00340031  RH  098%=      5-min Rain = 0
KJU1 080833Z 01005KT 03/03 A304 RMK A01 T00340031  RH  098%=      5-min Rain = 0
KJU1 080834Z 00005KT 03/03 A304 RMK A01 T00340031  RH  098%=      5-min Rain = 0
KJU1 080835Z 01005KT 04/03 A304 RMK A01 T00350031  RH  098%=      5-min Rain = 0
KJU1 080836Z 01005KT 03/03 A304 RMK A01 T00340031  RH  098%=      5-min Rain = 0
KJU1 080837Z 02005KT 04/03 A304 RMK A01 T00350031  RH  098%=      5-min Rain = 0
KJU1 080838Z 01006KT 03/03 A304 RMK A01 T00340031  RH  098%=      5-min Rain = 0.01
KJU1 080839Z 00005KT 03/03 A304 RMK A01 T00340031  RH  098%=      5-min Rain = 0
KJU1 080840Z 35005KT 03/03 A304 RMK A01 T00340031  RH  098%=      5-min Rain = 0
KJU1 080841Z 01005KT 04/03 A304 RMK A01 T00350031  RH  098%=      5-min Rain = 0
KJU1 080842Z 01005KT 04/03 A304 RMK A01 T00350031  RH  098%=      5-min Rain = 0
KJU1 080843Z 36004KT 03/03 A304 RMK A01 T00340031  RH  098%=      5-min Rain = 0
KJU1 080844Z 00004KT 03/03 A304 RMK A01 T00340031  RH  098%=      5-min Rain = 0
KJU1 080845Z 01007KT 03/03 A304 RMK A01 T00340031  RH  098%=      5-min Rain = 0
KJU1 080846Z 35005KT 03/03 A304 RMK A01 T00340031  RH  098%=      5-min Rain = 0
KJU1 080847Z 00003KT 04/03 A304 RMK A01 T00350031  RH  098%=      5-min Rain = 0
KJU1 080848Z 01005KT 04/03 A304 RMK A01 T00350031  RH  098%=      5-min Rain = 0.01
KJU1 080849Z 36004KT 04/03 A3039 RMK A01 T00350031  RH  098%=      5-min Rain = 0
KJU1 080850Z 01004KT 04/03 A3039 RMK A01 T00350031  RH  098%=      5-min Rain = 0
KJU1 080851Z 01004KT 04/03 A3039 RMK A01 T00350031  RH  098%=      5-min Rain = 0
KJU1 080852Z 01005KT 04/03 A3039 RMK A01 T00350031  RH  098%=      5-min Rain = 0
KJU1 080853Z 01004KT 04/03 A3039 RMK A01 T00350032  RH  098%=      5-min Rain = 0
KJU1 080854Z 01005KT 04/03 A3039 RMK A01 T00350031  RH  098%=      5-min Rain = 0
KJU1 080855Z 01004KT 04/03 A3039 RMK A01 T00350031  RH  098%=      5-min Rain = 0.01
KJU1 080856Z 00003KT 03/03 A3039 RMK A01 T00340031  RH  098%=      5-min Rain = 0
KJU1 080857Z 02003KT 03/03 A3039 RMK A01 T00340031  RH  098%=      5-min Rain = 0
KJU1 080858Z 01004KT 04/03 A3039 RMK A01 T00350032  RH  098%=      5-min Rain = 0
KJU1 080859Z 02004KT 04/03 A3039 RMK A01 T00350032  RH  098%=      5-min Rain = 0
KJU1 080900Z 02004KT 04/03 A3039 RMK A01 T00350032  RH  098%=      5-min Rain = 0
KJU1 080901Z 02005KT 04/03 A3039 RMK A01 T00350032  RH  098%=      5-min Rain = 0
KJU1 080902Z 02004KT 04/03 A3039 RMK A01 T00350032  RH  098%=      5-min Rain = 0
KJU1 080903Z 02004KT 04/03 A3039 RMK A01 T00350032  RH  098%=      5-min Rain = 0
KJU1 080904Z 02005KT 04/03 A3039 RMK A01 T00350032  RH  098%=      5-min Rain = 0
KJU1 080905Z 02005KT 04/03 A3039 RMK A01 T00350032  RH  098%=      5-min Rain = 0
KJU1 080906Z 01004KT 04/03 A3039 RMK A01 T00350032  RH  098%=      5-min Rain = 0
KJU1 080907Z 01005KT 04/03 A3039 RMK A01 T00350032  RH  098%=      5-min Rain = 0.01
KJU1 080908Z 02005KT 04/03 A3039 RMK A01 T00350032  RH  098%=      5-min Rain = 0
KJU1 080909Z 01004KT 04/03 A3038 RMK A01 T00350032  RH  098%=      5-min Rain = 0
KJU1 080910Z 02004KT 03/03 A3038 RMK A01 T00340031  RH  098%=      5-min Rain = 0
KJU1 080911Z 01004KT 04/03 A3038 RMK A01 T00350032  RH  098%=      5-min Rain = 0
KJU1 080912Z 03005KT 04/03 A3038 RMK A01 T00350032  RH  098%=      5-min Rain = 0
KJU1 080913Z 02005KT 04/03 A3038 RMK A01 T00350032  RH  098%=      5-min Rain = 0
KJU1 080914Z 02006KT 04/03 A3038 RMK A01 T00350032  RH  098%=      5-min Rain = 0
KJU1 080915Z 02006KT 04/03 A3038 RMK A01 T00350032  RH  098%=      5-min Rain = 0
KJU1 080916Z 02006KT 04/03 A3038 RMK A01 T00350032  RH  098%=      5-min Rain = 0
KJU1 080917Z 03005KT 04/03 A3038 RMK A01 T00350032  RH  098%=      5-min Rain = 0
KJU1 080918Z 03005KT 04/03 A3038 RMK A01 T00350032  RH  098%=      5-min Rain = 0
KJU1 080919Z 02006KT 04/03 A3038 RMK A01 T00350032  RH  098%=      5-min Rain = 0
KJU1 080920Z 02005KT 04/03 A3038 RMK A01 T00350032  RH  098%=      5-min Rain = 0
KJU1 080921Z 03005KT 04/03 A3038 RMK A01 T00350032  RH  098%=      5-min Rain = 0
KJU1 080922Z 02007KT 04/03 A3038 RMK A01 T00360032  RH  098%=      5-min Rain = 0
KJU1 080923Z 01005KT 04/03 A3038 RMK A01 T00360032  RH  097%=      5-min Rain = 0
KJU1 080924Z 02005KT 04/03 A3038 RMK A01 T00360032  RH  097%=      5-min Rain = 0
KJU1 080925Z 02005KT 04/03 A3038 RMK A01 T00360032  RH  097%=      5-min Rain = 0
KJU1 080926Z 01005KT 04/03 A3039 RMK A01 T00350031  RH  097%=      5-min Rain = 0
KJU1 080927Z 01004KT 04/03 A3039 RMK A01 T00350031  RH  097%=      5-min Rain = 0
KJU1 080928Z 35005KT 04/03 A3039 RMK A01 T00350031  RH  097%=      5-min Rain = 0
KJU1 080929Z 35005KT 04/03 A3039 RMK A01 T00350031  RH  097%=      5-min Rain = 0
KJU1 080930Z 00004KT 04/03 A3039 RMK A01 T00350031  RH  097%=      5-min Rain = 0
KJU1 080931Z 01006KT 04/03 A3039 RMK A01 T00350031  RH  097%=      5-min Rain = 0
KJU1 080932Z 01006KT 04/03 A3039 RMK A01 T00350031  RH  097%=      5-min Rain = 0
KJU1 080933Z 00004KT 04/03 A3039 RMK A01 T00350031  RH  097%=      5-min Rain = 0
KJU1 080934Z 02004KT 04/03 A3039 RMK A01 T00350031  RH  097%=      5-min Rain = 0
KJU1 080935Z 01005KT 04/03 A3039 RMK A01 T00350031  RH  097%=      5-min Rain = 0
KJU1 080936Z 01005KT 04/03 A3039 RMK A01 T00350031  RH  097%=      5-min Rain = 0
KJU1 080937Z 01006KT 04/03 A3039 RMK A01 T00360031  RH  097%=      5-min Rain = 0
KJU1 080938Z 01006KT 04/03 A3039 RMK A01 T00350031  RH  097%=      5-min Rain = 0
KJU1 080939Z 01007KT 04/03 A3039 RMK A01 T00350031  RH  097%=      5-min Rain = 0
KJU1 080940Z 02005KT 04/03 A3039 RMK A01 T00350031  RH  097%=      5-min Rain = 0.01
KJU1 080941Z 02006KT 04/03 A3039 RMK A01 T00350031  RH  097%=      5-min Rain = 0
KJU1 080942Z 00006KT 04/03 A3039 RMK A01 T00350031  RH  097%=      5-min Rain = 0
KJU1 080943Z 01006KT 04/03 A3039 RMK A01 T00350031  RH  097%=      5-min Rain = 0
KJU1 080944Z 01005KT 04/03 A3039 RMK A01 T00350031  RH  097%=      5-min Rain = 0
KJU1 080945Z 01003KT 04/03 A3039 RMK A01 T00350030  RH  097%=      5-min Rain = 0
KJU1 080946Z 01004KT 04/03 A3039 RMK A01 T00350030  RH  097%=      5-min Rain = 0
KJU1 080947Z 02005KT 04/03 A3039 RMK A01 T00350031  RH  097%=      5-min Rain = 0
KJU1 080948Z 00005KT 04/03 A3039 RMK A01 T00350031  RH  097%=      5-min Rain = 0
KJU1 080949Z 01005KT 04/03 A3039 RMK A01 T00350031  RH  097%=      5-min Rain = 0.01
KJU1 080950Z 00006KT 04/03 A3039 RMK A01 T00350031  RH  097%=      5-min Rain = 0
KJU1 080951Z 36007KT 04/03 A3039 RMK A01 T00350031  RH  097%=      5-min Rain = 0
KJU1 080952Z 01008KT 04/03 A3039 RMK A01 T00350030  RH  097%=      5-min Rain = 0
KJU1 080953Z 36007KT 03/03 A3039 RMK A01 T00340029  RH  097%=      5-min Rain = 0
KJU1 080954Z 00004KT 03/03 A3039 RMK A01 T00340029  RH  097%=      5-min Rain = 0
KJU1 080955Z 00007KT 03/03 A3039 RMK A01 T00340029  RH  097%=      5-min Rain = 0
KJU1 080956Z 01007KT 03/03 A3039 RMK A01 T00340028  RH  096%=      5-min Rain = 0
KJU1 080957Z 01005KT 03/03 A3038 RMK A01 T00330028  RH  096%=      5-min Rain = 0
KJU1 080958Z 01007KT 03/03 A3038 RMK A01 T00340028  RH  096%=      5-min Rain = 0
KJU1 080959Z 01006KT 03/03 A3039 RMK A01 T00330028  RH  096%=      5-min Rain = 0
KJU1 081000Z 01005KT 03/03 A3039 RMK A01 T00330027  RH  096%=      5-min Rain = 0
KJU1 081001Z 02006KT 03/03 A3039 RMK A01 T00330028  RH  096%=      5-min Rain = 0
KJU1 081002Z 00005KT 03/03 A3039 RMK A01 T00330028  RH  096%=      5-min Rain = 0
KJU1 081003Z 36004KT 03/03 A3039 RMK A01 T00330028  RH  096%=      5-min Rain = 0
KJU1 081004Z 01005KT 03/03 A3039 RMK A01 T00330028  RH  096%=      5-min Rain = 0
KJU1 081005Z 01007KT 03/03 A3039 RMK A01 T00330028  RH  096%=      5-min Rain = 0.01
KJU1 081006Z 00006KT 03/03 A3038 RMK A01 T00330028  RH  096%=      5-min Rain = 0
KJU1 081007Z 36005KT 03/03 A3038 RMK A01 T00330028  RH  096%=      5-min Rain = 0
KJU1 081008Z 01006KT 03/03 A3038 RMK A01 T00330028  RH  096%=      5-min Rain = 0
KJU1 081009Z 01006KT 03/03 A3039 RMK A01 T00330028  RH  096%=      5-min Rain = 0
KJU1 081010Z 01006KT 03/03 A3039 RMK A01 T00330028  RH  096%=      5-min Rain = 0
KJU1 081011Z 02005KT 03/03 A3039 RMK A01 T00330028  RH  096%=      5-min Rain = 0
KJU1 081012Z 01004KT 03/03 A3039 RMK A01 T00330028  RH  097%=      5-min Rain = 0
KJU1 081013Z 01004KT 03/03 A3039 RMK A01 T00330028  RH  097%=      5-min Rain = 0
KJU1 081014Z 02007KT 03/03 A3039 RMK A01 T00340029  RH  097%=      5-min Rain = 0
KJU1 081015Z 00005KT 03/03 A3039 RMK A01 T00330028  RH  097%=      5-min Rain = 0
KJU1 081016Z 01004KT 03/03 A3039 RMK A01 T00340029  RH  097%=      5-min Rain = 0.01
KJU1 081017Z 01005KT 03/03 A3039 RMK A01 T00330028  RH  097%=      5-min Rain = 0
KJU1 081018Z 02007KT 03/03 A3039 RMK A01 T00330028  RH  097%=      5-min Rain = 0
KJU1 081019Z 02007KT 03/03 A3039 RMK A01 T00330028  RH  096%=      5-min Rain = 0
KJU1 081020Z 01007KT 03/03 A3039 RMK A01 T00330028  RH  096%=      5-min Rain = 0
KJU1 081021Z 02005KT 03/03 A3039 RMK A01 T00330028  RH  096%=      5-min Rain = 0
KJU1 081022Z 01006KT 03/03 A3038 RMK A01 T00330028  RH  096%=      5-min Rain = 0
KJU1 081023Z 01005KT 03/03 A3038 RMK A01 T00330028  RH  096%=      5-min Rain = 0
KJU1 081024Z 02005KT 03/03 A3038 RMK A01 T00330028  RH  096%=      5-min Rain = 0
KJU1 081025Z 01004KT 03/03 A3038 RMK A01 T00340028  RH  096%=      5-min Rain = 0
KJU1 081026Z 00003KT 03/03 A3038 RMK A01 T00340028  RH  096%=      5-min Rain = 0
KJU1 081027Z 02006KT 03/03 A3039 RMK A01 T00330028  RH  096%=      5-min Rain = 0
KJU1 081028Z 02006KT 03/03 A3039 RMK A01 T00330028  RH  096%=      5-min Rain = 0
KJU1 081029Z 01005KT 03/03 A3039 RMK A01 T00330028  RH  096%=      5-min Rain = 0
KJU1 081030Z 36005KT 03/03 A3039 RMK A01 T00330028  RH  096%=      5-min Rain = 0
KJU1 081031Z 01006KT 03/03 A3039 RMK A01 T00330028  RH  096%=      5-min Rain = 0
KJU1 081032Z 01007KT 03/03 A3039 RMK A01 T00330027  RH  096%=      5-min Rain = 0
KJU1 081033Z 01006KT 03/03 A3039 RMK A01 T00330027  RH  096%=      5-min Rain = 0
KJU1 081034Z 01004KT 03/03 A3039 RMK A01 T00320027  RH  096%=      5-min Rain = 0
KJU1 081035Z 01004KT 03/03 A3039 RMK A01 T00330027  RH  096%=      5-min Rain = 0
KJU1 081036Z 01003KT 03/03 A3039 RMK A01 T00330027  RH  096%=      5-min Rain = 0
KJU1 081037Z 02004KT 03/03 A3039 RMK A01 T00330027  RH  096%=      5-min Rain = 0
KJU1 081038Z 01005KT 03/03 A3039 RMK A01 T00330027  RH  096%=      5-min Rain = 0
KJU1 081039Z 01004KT 03/03 A3039 RMK A01 T00330027  RH  096%=      5-min Rain = 0
KJU1 081040Z 02004KT 03/03 A3039 RMK A01 T00330028  RH  096%=      5-min Rain = 0
KJU1 081041Z 36005KT 03/03 A3039 RMK A01 T00330028  RH  096%=      5-min Rain = 0
KJU1 081042Z 00006KT 03/03 A3039 RMK A01 T00330028  RH  096%=      5-min Rain = 0
KJU1 081043Z 03005KT 03/03 A3039 RMK A01 T00330027  RH  096%=      5-min Rain = 0
KJU1 081044Z 03003KT 03/03 A3039 RMK A01 T00320027  RH  096%=      5-min Rain = 0
KJU1 081045Z 01004KT 03/03 A3039 RMK A01 T00330028  RH  096%=      5-min Rain = 0
KJU1 081046Z 01006KT 03/03 A3039 RMK A01 T00330028  RH  096%=      5-min Rain = 0
KJU1 081047Z 01006KT 03/03 A3039 RMK A01 T00330028  RH  096%=      5-min Rain = 0
KJU1 081048Z 01006KT 03/03 A3039 RMK A01 T00330028  RH  096%=      5-min Rain = 0
KJU1 081049Z 02007KT 03/03 A3039 RMK A01 T00330027  RH  096%=      5-min Rain = 0
KJU1 081050Z 01008KT 03/03 A3039 RMK A01 T00330027  RH  096%=      5-min Rain = 0
KJU1 081051Z 01006KT 03/03 A3039 RMK A01 T00330027  RH  096%=      5-min Rain = 0
KJU1 081052Z 01005KT 03/03 A3039 RMK A01 T00320026  RH  096%=      5-min Rain = 0
KJU1 081053Z 02005KT 03/03 A3039 RMK A01 T00330026  RH  096%=      5-min Rain = 0
KJU1 081054Z 01005KT 03/03 A3039 RMK A01 T00330026  RH  096%=      5-min Rain = 0
KJU1 081055Z 01007KT 03/03 A3039 RMK A01 T00330026  RH  096%=      5-min Rain = 0
KJU1 081056Z 02005KT 03/03 A3039 RMK A01 T00320026  RH  096%=      5-min Rain = 0
KJU1 081057Z 02006KT 03/03 A3039 RMK A01 T00320026  RH  096%=      5-min Rain = 0
KJU1 081058Z 02005KT 03/03 A3039 RMK A01 T00320026  RH  096%=      5-min Rain = 0
KJU1 081059Z 02005KT 03/03 A3039 RMK A01 T00320026  RH  096%=      5-min Rain = 0
KJU1 081100Z 02005KT 03/03 A3039 RMK A01 T00330026  RH  096%=      5-min Rain = 0
KJU1 081101Z 02007KT 03/03 A3039 RMK A01 T00320026  RH  096%=      5-min Rain = 0
KJU1 081102Z 03007KT 03/03 A3039 RMK A01 T00330027  RH  096%=      5-min Rain = 0
KJU1 081103Z 02005KT 03/03 A3039 RMK A01 T00330027  RH  096%=      5-min Rain = 0
KJU1 081104Z 00004KT 03/03 A3039 RMK A01 T00340027  RH  096%=      5-min Rain = 0
KJU1 081105Z 01004KT 03/03 A3039 RMK A01 T00340027  RH  096%=      5-min Rain = 0
KJU1 081106Z 02005KT 03/03 A3039 RMK A01 T00330027  RH  096%=      5-min Rain = 0
KJU1 081107Z 01006KT 03/03 A3039 RMK A01 T00330026  RH  096%=      5-min Rain = 0
KJU1 081108Z 01006KT 03/03 A3039 RMK A01 T00330027  RH  096%=      5-min Rain = 0
KJU1 081109Z 01004KT 03/03 A3039 RMK A01 T00330027  RH  096%=      5-min Rain = 0
KJU1 081110Z 01006KT 03/03 A3039 RMK A01 T00330027  RH  096%=      5-min Rain = 0
KJU1 081111Z 02006KT 03/03 A3039 RMK A01 T00330026  RH  096%=      5-min Rain = 0
KJU1 081112Z 01005KT 03/03 A3039 RMK A01 T00330027  RH  096%=      5-min Rain = 0
KJU1 081113Z 02004KT 03/03 A3039 RMK A01 T00330026  RH  096%=      5-min Rain = 0
KJU1 081114Z 01005KT 03/03 A3039 RMK A01 T00330027  RH  096%=      5-min Rain = 0
KJU1 081115Z 01005KT 03/03 A3039 RMK A01 T00330027  RH  096%=      5-min Rain = 0
KJU1 081116Z 01003KT 03/03 A3039 RMK A01 T00330027  RH  096%=      5-min Rain = 0
KJU1 081117Z 02004KT 03/03 A3039 RMK A01 T00330027  RH  096%=      5-min Rain = 0
KJU1 081118Z 02005KT 03/03 A3039 RMK A01 T00330027  RH  096%=      5-min Rain = 0
KJU1 081119Z 02005KT 03/03 A3039 RMK A01 T00330027  RH  096%=      5-min Rain = 0
KJU1 081120Z 01005KT 03/03 A3039 RMK A01 T00330027  RH  096%=      5-min Rain = 0
KJU1 081121Z 01005KT 03/03 A3039 RMK A01 T00330027  RH  096%=      5-min Rain = 0
KJU1 081122Z 01004KT 03/03 A3039 RMK A01 T00330027  RH  096%=      5-min Rain = 0
KJU1 081123Z 01006KT 03/03 A3039 RMK A01 T00330027  RH  096%=      5-min Rain = 0
KJU1 081124Z 01006KT 03/03 A3039 RMK A01 T00330027  RH  096%=      5-min Rain = 0
KJU1 081125Z 01005KT 03/03 A3039 RMK A01 T00330027  RH  096%=      5-min Rain = 0
KJU1 081126Z 02004KT 03/03 A3039 RMK A01 T00330027  RH  096%=      5-min Rain = 0
KJU1 081127Z 02006KT 03/03 A3039 RMK A01 T00330027  RH  096%=      5-min Rain = 0
KJU1 081128Z 02005KT 03/03 A3039 RMK A01 T00330028  RH  096%=      5-min Rain = 0
KJU1 081129Z 02005KT 03/03 A3039 RMK A01 T00340028  RH  096%=      5-min Rain = 0
KJU1 081130Z 02005KT 03/03 A3039 RMK A01 T00330027  RH  096%=      5-min Rain = 0
KJU1 081131Z 02006KT 03/03 A3039 RMK A01 T00330027  RH  096%=      5-min Rain = 0
KJU1 081132Z 01005KT 03/03 A3039 RMK A01 T00330027  RH  096%=      5-min Rain = 0
KJU1 081133Z 01004KT 03/03 A3039 RMK A01 T00330027  RH  096%=      5-min Rain = 0
KJU1 081134Z 01004KT 03/03 A3039 RMK A01 T00340028  RH  096%=      5-min Rain = 0
KJU1 081135Z 36003KT 03/03 A3039 RMK A01 T00340028  RH  096%=      5-min Rain = 0
KJU1 081136Z 02003KT 03/03 A3039 RMK A01 T00340028  RH  096%=      5-min Rain = 0
KJU1 081137Z 01003KT 03/03 A3039 RMK A01 T00330028  RH  096%=      5-min Rain = 0
KJU1 081138Z 00003KT 03/03 A3039 RMK A01 T00330028  RH  096%=      5-min Rain = 0
KJU1 081139Z 02003KT 03/03 A3039 RMK A01 T00330028  RH  096%=      5-min Rain = 0
KJU1 081140Z 01003KT 03/03 A3039 RMK A01 T00340029  RH  096%=      5-min Rain = 0
KJU1 081141Z 02004KT 03/03 A304 RMK A01 T00340029  RH  096%=      5-min Rain = 0
KJU1 081142Z 36004KT 03/03 A304 RMK A01 T00340029  RH  096%=      5-min Rain = 0
KJU1 081143Z 01004KT 03/03 A304 RMK A01 T00340029  RH  096%=      5-min Rain = 0
KJU1 081144Z 00003KT 03/03 A304 RMK A01 T00340029  RH  096%=      5-min Rain = 0
KJU1 081145Z 00002KT 03/03 A304 RMK A01 T00340029  RH  096%=      5-min Rain = 0
KJU1 081146Z 01003KT 03/03 A304 RMK A01 T00340029  RH  097%=      5-min Rain = 0
KJU1 081147Z 00004KT 03/03 A304 RMK A01 T00340029  RH  097%=      5-min Rain = 0
KJU1 081148Z 36004KT 03/03 A304 RMK A01 T00340030  RH  097%=      5-min Rain = 0
KJU1 081149Z 36003KT 03/03 A304 RMK A01 T00340029  RH  097%=      5-min Rain = 0
KJU1 081150Z 35003KT 04/03 A304 RMK A01 T00350030  RH  097%=      5-min Rain = 0
KJU1 081151Z 35003KT 03/03 A304 RMK A01 T00340029  RH  097%=      5-min Rain = 0
KJU1 081152Z 00005KT 03/03 A304 RMK A01 T00340029  RH  097%=      5-min Rain = 0
KJU1 081153Z 35005KT 03/03 A304 RMK A01 T00340030  RH  097%=      5-min Rain = 0.01
KJU1 081154Z 00005KT 03/03 A304 RMK A01 T00340029  RH  097%=      5-min Rain = 0
KJU1 081155Z 01005KT 03/03 A304 RMK A01 T00340029  RH  097%=      5-min Rain = 0
KJU1 081156Z 36004KT 03/03 A304 RMK A01 T00340029  RH  097%=      5-min Rain = 0
KJU1 081157Z 34005KT 04/03 A304 RMK A01 T00350030  RH  097%=      5-min Rain = 0
KJU1 081158Z 01004KT 04/03 A304 RMK A01 T00350030  RH  097%=      5-min Rain = 0
KJU1 081159Z 01005KT 04/03 A304 RMK A01 T00350030  RH  097%=      5-min Rain = 0
KJU1 081200Z 01005KT 04/03 A304 RMK A01 T00350030  RH  096%=      5-min Rain = 0
KJU1 081201Z 02005KT 04/03 A304 RMK A01 T00350030  RH  096%=      5-min Rain = 0
KJU1 081202Z 01004KT 04/03 A304 RMK A01 T00350030  RH  096%=      5-min Rain = 0
KJU1 081203Z 01003KT 04/03 A304 RMK A01 T00350030  RH  097%=      5-min Rain = 0
KJU1 081204Z 01003KT 04/03 A304 RMK A01 T00350030  RH  097%=      5-min Rain = 0
KJU1 081205Z 01002KT 04/03 A304 RMK A01 T00350030  RH  097%=      5-min Rain = 0
KJU1 081206Z 02005KT 04/03 A304 RMK A01 T00360031  RH  097%=      5-min Rain = 0
KJU1 081207Z 01005KT 04/03 A304 RMK A01 T00360030  RH  096%=      5-min Rain = 0
KJU1 081208Z 02003KT 04/03 A304 RMK A01 T00350030  RH  096%=      5-min Rain = 0
KJU1 081209Z 02003KT 04/03 A304 RMK A01 T00350030  RH  096%=      5-min Rain = 0
KJU1 081210Z 02003KT 04/03 A304 RMK A01 T00360031  RH  097%=      5-min Rain = 0
KJU1 081211Z 02005KT 04/03 A304 RMK A01 T00360031  RH  097%=      5-min Rain = 0
KJU1 081212Z 01004KT 04/03 A304 RMK A01 T00360031  RH  097%=      5-min Rain = 0
KJU1 081213Z 01004KT 04/03 A304 RMK A01 T00360031  RH  096%=      5-min Rain = 0
KJU1 081214Z 02004KT 04/03 A304 RMK A01 T00360031  RH  096%=      5-min Rain = 0
KJU1 081215Z 01004KT 04/03 A304 RMK A01 T00360031  RH  096%=      5-min Rain = 0
KJU1 081216Z 02004KT 04/03 A304 RMK A01 T00360031  RH  096%=      5-min Rain = 0
KJU1 081217Z 02005KT 04/03 A304 RMK A01 T00360031  RH  096%=      5-min Rain = 0
KJU1 081218Z 02004KT 04/03 A304 RMK A01 T00360031  RH  096%=      5-min Rain = 0
KJU1 081219Z 03003KT 04/03 A304 RMK A01 T00360030  RH  096%=      5-min Rain = 0
KJU1 081220Z 02003KT 04/03 A304 RMK A01 T00360031  RH  096%=      5-min Rain = 0
KJU1 081221Z 00003KT 04/03 A304 RMK A01 T00360030  RH  096%=      5-min Rain = 0
KJU1 081222Z 02003KT 04/03 A304 RMK A01 T00360030  RH  096%=      5-min Rain = 0
KJU1 081223Z 03003KT 04/03 A304 RMK A01 T00360031  RH  096%=      5-min Rain = 0
KJU1 081224Z 02003KT 04/03 A304 RMK A01 T00370032  RH  097%=      5-min Rain = 0
KJU1 081225Z 01004KT 04/03 A304 RMK A01 T00370032  RH  097%=      5-min Rain = 0
KJU1 081226Z 03004KT 04/03 A304 RMK A01 T00370031  RH  097%=      5-min Rain = 0
KJU1 081227Z 03004KT 04/03 A304 RMK A01 T00370032  RH  097%=      5-min Rain = 0
KJU1 081228Z 02005KT 04/03 A304 RMK A01 T00370032  RH  097%=      5-min Rain = 0
KJU1 081229Z 03005KT 04/03 A304 RMK A01 T00370032  RH  097%=      5-min Rain = 0
KJU1 081230Z 02004KT 04/03 A304 RMK A01 T00360031  RH  096%=      5-min Rain = 0
KJU1 081231Z 02004KT 04/03 A304 RMK A01 T00360031  RH  096%=      5-min Rain = 0
KJU1 081232Z 02003KT 04/03 A304 RMK A01 T00360031  RH  096%=      5-min Rain = 0
KJU1 081233Z 01003KT 04/03 A304 RMK A01 T00360031  RH  096%=      5-min Rain = 0
KJU1 081234Z 02003KT 04/03 A304 RMK A01 T00370032  RH  097%=      5-min Rain = 0
KJU1 081235Z 02003KT 04/03 A304 RMK A01 T00370032  RH  097%=      5-min Rain = 0
KJU1 081236Z 01004KT 04/03 A304 RMK A01 T00370032  RH  097%=      5-min Rain = 0
KJU1 081237Z 01002KT 04/03 A304 RMK A01 T00370032  RH  097%=      5-min Rain = 0
KJU1 081238Z 01003KT 04/03 A304 RMK A01 T00370032  RH  097%=      5-min Rain = 0
KJU1 081239Z 02004KT 04/03 A304 RMK A01 T00370032  RH  097%=      5-min Rain = 0
KJU1 081240Z 02004KT 04/03 A304 RMK A01 T00370032  RH  097%=      5-min Rain = 0
KJU1 081241Z 03003KT 04/03 A304 RMK A01 T00370032  RH  097%=      5-min Rain = 0
KJU1 081242Z 03003KT 04/03 A304 RMK A01 T00370032  RH  097%=      5-min Rain = 0
KJU1 081243Z 03004KT 04/03 A304 RMK A01 T00370032  RH  097%=      5-min Rain = 0
KJU1 081244Z 02003KT 04/03 A304 RMK A01 T00370032  RH  097%=      5-min Rain = 0
KJU1 081245Z 01004KT 04/03 A3041 RMK A01 T00370032  RH  097%=      5-min Rain = 0
KJU1 081246Z 02004KT 04/03 A3041 RMK A01 T00370033  RH  097%=      5-min Rain = 0
KJU1 081247Z 01005KT 04/03 A3041 RMK A01 T00370032  RH  097%=      5-min Rain = 0
KJU1 081248Z 01004KT 04/03 A3041 RMK A01 T00370032  RH  097%=      5-min Rain = 0
KJU1 081249Z 02005KT 04/03 A304 RMK A01 T00370032  RH  097%=      5-min Rain = 0
KJU1 081250Z 02005KT 04/03 A304 RMK A01 T00370032  RH  097%=      5-min Rain = 0
KJU1 081251Z 02005KT 04/03 A304 RMK A01 T00370032  RH  097%=      5-min Rain = 0
KJU1 081252Z 02005KT 04/03 A304 RMK A01 T00370032  RH  097%=      5-min Rain = 0
KJU1 081253Z 02005KT 04/03 A304 RMK A01 T00370032  RH  097%=      5-min Rain = 0
KJU1 081254Z 02004KT 04/03 A304 RMK A01 T00370033  RH  097%=      5-min Rain = 0
KJU1 081255Z 02003KT 04/03 A304 RMK A01 T00370033  RH  097%=      5-min Rain = 0
KJU1 081256Z 02006KT 04/03 A304 RMK A01 T00380033  RH  097%=      5-min Rain = 0
KJU1 081257Z 01006KT 04/03 A304 RMK A01 T00380033  RH  097%=      5-min Rain = 0
KJU1 081258Z 01005KT 04/03 A304 RMK A01 T00380033  RH  097%=      5-min Rain = 0
KJU1 081259Z 02005KT 04/03 A304 RMK A01 T00380033  RH  097%=      5-min Rain = 0
KJU1 081300Z 01006KT 04/03 A304 RMK A01 T00380033  RH  097%=      5-min Rain = 0
KJU1 081301Z 02005KT 04/03 A304 RMK A01 T00380033  RH  097%=      5-min Rain = 0
KJU1 081302Z 01006KT 04/03 A304 RMK A01 T00370033  RH  097%=      5-min Rain = 0
KJU1 081303Z 02004KT 04/03 A304 RMK A01 T00370032  RH  097%=      5-min Rain = 0
KJU1 081304Z 00004KT 04/03 A3041 RMK A01 T00370032  RH  097%=      5-min Rain = 0
KJU1 081305Z 36005KT 04/03 A3041 RMK A01 T00370033  RH  097%=      5-min Rain = 0
KJU1 081306Z 00004KT 04/03 A3041 RMK A01 T00370032  RH  097%=      5-min Rain = 0.01
KJU1 081307Z 00004KT 04/03 A3041 RMK A01 T00370032  RH  097%=      5-min Rain = 0
KJU1 081308Z 00004KT 04/03 A3041 RMK A01 T00370033  RH  097%=      5-min Rain = 0
KJU1 081309Z 35004KT 04/03 A3041 RMK A01 T00380033  RH  097%=      5-min Rain = 0
KJU1 081310Z 01003KT 04/03 A3041 RMK A01 T00370033  RH  097%=      5-min Rain = 0
KJU1 081311Z 01004KT 04/03 A3041 RMK A01 T00380033  RH  097%=      5-min Rain = 0
KJU1 081312Z 00003KT 04/03 A3041 RMK A01 T00380033  RH  097%=      5-min Rain = 0
KJU1 081313Z 01002KT 04/03 A3041 RMK A01 T00380033  RH  097%=      5-min Rain = 0
KJU1 081314Z 02004KT 04/03 A3041 RMK A01 T00380033  RH  097%=      5-min Rain = 0
KJU1 081315Z 02004KT 04/03 A3041 RMK A01 T00380033  RH  097%=      5-min Rain = 0
KJU1 081316Z 01004KT 04/03 A3041 RMK A01 T00380034  RH  097%=      5-min Rain = 0
KJU1 081317Z 01004KT 04/03 A3041 RMK A01 T00380034  RH  097%=      5-min Rain = 0
KJU1 081318Z 02004KT 04/03 A3041 RMK A01 T00380034  RH  097%=      5-min Rain = 0
KJU1 081319Z 02005KT 04/03 A3041 RMK A01 T00370033  RH  097%=      5-min Rain = 0
KJU1 081320Z 02004KT 04/03 A3041 RMK A01 T00370033  RH  097%=      5-min Rain = 0
KJU1 081321Z 02004KT 04/03 A3041 RMK A01 T00370032  RH  097%=      5-min Rain = 0
KJU1 081322Z 01004KT 04/03 A3041 RMK A01 T00370033  RH  097%=      5-min Rain = 0
KJU1 081323Z 01004KT 04/03 A3041 RMK A01 T00370032  RH  097%=      5-min Rain = 0
KJU1 081324Z 01004KT 04/03 A3041 RMK A01 T00370033  RH  097%=      5-min Rain = 0
KJU1 081325Z 01004KT 04/03 A3041 RMK A01 T00370033  RH  097%=      5-min Rain = 0
KJU1 081326Z 02005KT 04/03 A3041 RMK A01 T00370033  RH  097%=      5-min Rain = 0
KJU1 081327Z 02005KT 04/03 A3041 RMK A01 T00370033  RH  097%=      5-min Rain = 0
KJU1 081328Z 36005KT 04/03 A3041 RMK A01 T00370033  RH  097%=      5-min Rain = 0
KJU1 081329Z 01005KT 04/03 A3041 RMK A01 T00370033  RH  097%=      5-min Rain = 0
KJU1 081330Z 01004KT 04/03 A3041 RMK A01 T00370033  RH  097%=      5-min Rain = 0
KJU1 081331Z 36005KT 04/03 A3041 RMK A01 T00370033  RH  097%=      5-min Rain = 0
KJU1 081332Z 36005KT 04/03 A3041 RMK A01 T00370033  RH  097%=      5-min Rain = 0
KJU1 081333Z 01004KT 04/03 A3041 RMK A01 T00370032  RH  097%=      5-min Rain = 0
KJU1 081334Z 01005KT 04/03 A3041 RMK A01 T00370032  RH  097%=      5-min Rain = 0
KJU1 081335Z 01004KT 04/03 A3041 RMK A01 T00370032  RH  097%=      5-min Rain = 0
KJU1 081336Z 36004KT 04/03 A3041 RMK A01 T00370033  RH  097%=      5-min Rain = 0
KJU1 081337Z 01003KT 04/03 A3041 RMK A01 T00360032  RH  097%=      5-min Rain = 0
KJU1 081338Z 36004KT 04/03 A3041 RMK A01 T00360032  RH  097%=      5-min Rain = 0
KJU1 081339Z 35004KT 04/03 A3042 RMK A01 T00370032  RH  097%=      5-min Rain = 0
KJU1 081340Z 35004KT 04/03 A3042 RMK A01 T00370033  RH  097%=      5-min Rain = 0
KJU1 081341Z 34004KT 04/03 A3042 RMK A01 T00370032  RH  097%=      5-min Rain = 0
KJU1 081342Z 35004KT 04/03 A3042 RMK A01 T00370032  RH  097%=      5-min Rain = 0
KJU1 081343Z 00004KT 04/03 A3042 RMK A01 T00360032  RH  097%=      5-min Rain = 0
KJU1 081344Z 00006KT 04/03 A3042 RMK A01 T00360032  RH  097%=      5-min Rain = 0
KJU1 081345Z 35005KT 04/03 A3042 RMK A01 T00360032  RH  097%=      5-min Rain = 0
KJU1 081346Z 36005KT 04/03 A3042 RMK A01 T00360032  RH  097%=      5-min Rain = 0
KJU1 081347Z 35004KT 04/03 A3042 RMK A01 T00360032  RH  097%=      5-min Rain = 0
KJU1 081348Z 00003KT 04/03 A3042 RMK A01 T00360032  RH  097%=      5-min Rain = 0
KJU1 081349Z 00003KT 04/03 A3042 RMK A01 T00360032  RH  097%=      5-min Rain = 0
KJU1 081350Z 01005KT 04/03 A3042 RMK A01 T00370032  RH  097%=      5-min Rain = 0
KJU1 081351Z 00006KT 04/03 A3042 RMK A01 T00370032  RH  097%=      5-min Rain = 0
KJU1 081352Z 00006KT 04/03 A3042 RMK A01 T00360032  RH  097%=      5-min Rain = 0
KJU1 081353Z 00006KT 04/03 A3042 RMK A01 T00360031  RH  097%=      5-min Rain = 0
KJU1 081354Z 01005KT 04/03 A3042 RMK A01 T00360031  RH  096%=      5-min Rain = 0
KJU1 081355Z 01005KT 04/03 A3041 RMK A01 T00360031  RH  096%=      5-min Rain = 0
KJU1 081356Z 02004KT 04/03 A3041 RMK A01 T00360031  RH  096%=      5-min Rain = 0
KJU1 081357Z 02005KT 04/03 A3041 RMK A01 T00360031  RH  096%=      5-min Rain = 0
KJU1 081358Z 02007KT 04/03 A3041 RMK A01 T00360031  RH  096%=      5-min Rain = 0
KJU1 081359Z 02006KT 04/03 A3042 RMK A01 T00360031  RH  096%=      5-min Rain = 0
KJU1 081400Z 01007KT 04/03 A3042 RMK A01 T00360030  RH  096%=      5-min Rain = 0
KJU1 081401Z 01004KT 04/03 A3042 RMK A01 T00360030  RH  096%=      5-min Rain = 0
KJU1 081402Z 01005KT 04/03 A3042 RMK A01 T00360030  RH  096%=      5-min Rain = 0
KJU1 081403Z 01005KT 04/03 A3042 RMK A01 T00360031  RH  096%=      5-min Rain = 0
KJU1 081404Z 01004KT 04/03 A3042 RMK A01 T00360031  RH  096%=      5-min Rain = 0
KJU1 081405Z 01003KT 04/03 A3042 RMK A01 T00370031  RH  096%=      5-min Rain = 0
KJU1 081406Z 01003KT 04/03 A3042 RMK A01 T00370031  RH  096%=      5-min Rain = 0
KJU1 081407Z 36004KT 04/03 A3042 RMK A01 T00370032  RH  096%=      5-min Rain = 0
KJU1 081408Z 01005KT 04/03 A3042 RMK A01 T00370032  RH  096%=      5-min Rain = 0
KJU1 081409Z 01005KT 04/03 A3042 RMK A01 T00370032  RH  096%=      5-min Rain = 0
KJU1 081410Z 01004KT 04/03 A3042 RMK A01 T00370032  RH  096%=      5-min Rain = 0
KJU1 081411Z 36002KT 04/03 A3042 RMK A01 T00370031  RH  096%=      5-min Rain = 0
KJU1 081412Z 01003KT 04/03 A3042 RMK A01 T00370032  RH  096%=      5-min Rain = 0
KJU1 081413Z 34003KT 04/03 A3042 RMK A01 T00370032  RH  096%=      5-min Rain = 0
KJU1 081414Z 36004KT 04/03 A3042 RMK A01 T00380033  RH  097%=      5-min Rain = 0
KJU1 081415Z 00005KT 04/03 A3042 RMK A01 T00380032  RH  096%=      5-min Rain = 0
KJU1 081416Z 00004KT 04/03 A3043 RMK A01 T00380032  RH  096%=      5-min Rain = 0
KJU1 081417Z 35003KT 04/03 A3043 RMK A01 T00370032  RH  096%=      5-min Rain = 0
KJU1 081418Z 35004KT 04/03 A3043 RMK A01 T00380033  RH  097%=      5-min Rain = 0
KJU1 081419Z 00003KT 04/03 A3043 RMK A01 T00380033  RH  096%=      5-min Rain = 0
KJU1 081420Z 35004KT 04/03 A3043 RMK A01 T00380033  RH  097%=      5-min Rain = 0
KJU1 081421Z 35004KT 04/03 A3043 RMK A01 T00380033  RH  097%=      5-min Rain = 0
KJU1 081422Z 00004KT 04/03 A3043 RMK A01 T00380033  RH  097%=      5-min Rain = 0
KJU1 081423Z 35003KT 04/03 A3043 RMK A01 T00380033  RH  097%=      5-min Rain = 0
KJU1 081424Z 35003KT 04/03 A3043 RMK A01 T00380033  RH  097%=      5-min Rain = 0
KJU1 081425Z 34004KT 04/03 A3043 RMK A01 T00380033  RH  097%=      5-min Rain = 0
KJU1 081426Z 35004KT 04/03 A3043 RMK A01 T00380033  RH  097%=      5-min Rain = 0
KJU1 081427Z 35003KT 04/03 A3043 RMK A01 T00380033  RH  097%=      5-min Rain = 0
KJU1 081428Z 36005KT 04/03 A3043 RMK A01 T00380033  RH  097%=      5-min Rain = 0
KJU1 081429Z 35003KT 04/03 A3043 RMK A01 T00380033  RH  097%=      5-min Rain = 0
KJU1 081430Z 01003KT 04/03 A3043 RMK A01 T00380033  RH  097%=      5-min Rain = 0
KJU1 081431Z 01006KT 04/03 A3043 RMK A01 T00380033  RH  097%=      5-min Rain = 0
KJU1 081432Z 36004KT 04/03 A3043 RMK A01 T00370031  RH  096%=      5-min Rain = 0
KJU1 081433Z 01004KT 04/03 A3043 RMK A01 T00370031  RH  096%=      5-min Rain = 0
KJU1 081434Z 00005KT 04/03 A3043 RMK A01 T00370032  RH  096%=      5-min Rain = 0
KJU1 081435Z 01004KT 04/03 A3043 RMK A01 T00370032  RH  096%=      5-min Rain = 0
KJU1 081436Z 02004KT 04/03 A3043 RMK A01 T00370031  RH  096%=      5-min Rain = 0
KJU1 081437Z 01004KT 04/03 A3043 RMK A01 T00370032  RH  096%=      5-min Rain = 0
KJU1 081438Z 35005KT 04/03 A3043 RMK A01 T00370031  RH  096%=      5-min Rain = 0
KJU1 081439Z 00005KT 04/03 A3043 RMK A01 T00370031  RH  096%=      5-min Rain = 0
KJU1 081440Z 01005KT 04/03 A3043 RMK A01 T00370031  RH  096%=      5-min Rain = 0
KJU1 081441Z 00004KT 04/03 A3043 RMK A01 T00370031  RH  096%=      5-min Rain = 0
KJU1 081442Z 35004KT 04/03 A3043 RMK A01 T00370031  RH  096%=      5-min Rain = 0
KJU1 081443Z 35003KT 04/03 A3043 RMK A01 T00370031  RH  096%=      5-min Rain = 0
KJU1 081444Z 35004KT 04/03 A3043 RMK A01 T00370031  RH  096%=      5-min Rain = 0
KJU1 081445Z 35003KT 04/03 A3043 RMK A01 T00380031  RH  096%=      5-min Rain = 0
KJU1 081446Z 35003KT 04/03 A3044 RMK A01 T00380032  RH  096%=      5-min Rain = 0
KJU1 081447Z 35004KT 04/03 A3044 RMK A01 T00380032  RH  096%=      5-min Rain = 0
KJU1 081448Z 35004KT 04/03 A3044 RMK A01 T00380032  RH  096%=      5-min Rain = 0
KJU1 081449Z 36004KT 04/03 A3043 RMK A01 T00380032  RH  096%=      5-min Rain = 0
KJU1 081450Z 35004KT 04/03 A3043 RMK A01 T00380032  RH  096%=      5-min Rain = 0
KJU1 081451Z 36004KT 04/03 A3043 RMK A01 T00380032  RH  096%=      5-min Rain = 0
KJU1 081452Z 01004KT 04/03 A3043 RMK A01 T00380032  RH  096%=      5-min Rain = 0
KJU1 081453Z 01003KT 04/03 A3043 RMK A01 T00380032  RH  096%=      5-min Rain = 0
KJU1 081454Z 00004KT 04/03 A3043 RMK A01 T00380032  RH  096%=      5-min Rain = 0
KJU1 081455Z 36004KT 04/03 A3043 RMK A01 T00380032  RH  096%=      5-min Rain = 0
KJU1 081456Z 01004KT 04/03 A3043 RMK A01 T00380031  RH  096%=      5-min Rain = 0
KJU1 081457Z 00003KT 04/03 A3043 RMK A01 T00380032  RH  096%=      5-min Rain = 0
KJU1 081458Z 36003KT 04/03 A3043 RMK A01 T00380032  RH  096%=      5-min Rain = 0
KJU1 081459Z 01004KT 04/03 A3043 RMK A01 T00390033  RH  096%=      5-min Rain = 0
KJU1 081500Z 00003KT 04/03 A3043 RMK A01 T00380032  RH  096%=      5-min Rain = 0
KJU1 081501Z 01002KT 04/03 A3043 RMK A01 T00390034  RH  096%=      5-min Rain = 0
KJU1 081502Z 01004KT 04/03 A3043 RMK A01 T00400034  RH  096%=      5-min Rain = 0
KJU1 081503Z 01004KT 04/03 A3043 RMK A01 T00400034  RH  096%=      5-min Rain = 0
KJU1 081504Z 01004KT 04/03 A3043 RMK A01 T00400034  RH  096%=      5-min Rain = 0
KJU1 081505Z 02004KT 04/03 A3043 RMK A01 T00400033  RH  096%=      5-min Rain = 0
KJU1 081506Z 01005KT 04/03 A3043 RMK A01 T00390033  RH  096%=      5-min Rain = 0
KJU1 081507Z 01005KT 04/03 A3043 RMK A01 T00390032  RH  095%=      5-min Rain = 0
KJU1 081508Z 01006KT 04/03 A3043 RMK A01 T00380031  RH  095%=      5-min Rain = 0
KJU1 081509Z 00004KT 04/03 A3043 RMK A01 T00380031  RH  095%=      5-min Rain = 0
KJU1 081510Z 01004KT 04/03 A3043 RMK A01 T00380032  RH  095%=      5-min Rain = 0
KJU1 081511Z 00004KT 04/03 A3043 RMK A01 T00380031  RH  095%=      5-min Rain = 0
KJU1 081512Z 00004KT 04/03 A3043 RMK A01 T00380031  RH  095%=      5-min Rain = 0
KJU1 081513Z 00004KT 04/03 A3043 RMK A01 T00390032  RH  095%=      5-min Rain = 0
KJU1 081514Z 00004KT 04/03 A3043 RMK A01 T00390032  RH  095%=      5-min Rain = 0
KJU1 081515Z 35005KT 04/03 A3043 RMK A01 T00400033  RH  095%=      5-min Rain = 0
KJU1 081516Z 36005KT 04/03 A3043 RMK A01 T00390033  RH  095%=      5-min Rain = 0
KJU1 081517Z 00004KT 04/03 A3043 RMK A01 T00390032  RH  095%=      5-min Rain = 0
KJU1 081518Z 01005KT 04/03 A3044 RMK A01 T00390032  RH  095%=      5-min Rain = 0
KJU1 081519Z 00005KT 04/03 A3044 RMK A01 T00400033  RH  095%=      5-min Rain = 0
KJU1 081520Z 00005KT 04/03 A3044 RMK A01 T00390032  RH  095%=      5-min Rain = 0
KJU1 081521Z 36004KT 04/03 A3044 RMK A01 T00390032  RH  095%=      5-min Rain = 0
KJU1 081522Z 35005KT 04/03 A3044 RMK A01 T00390032  RH  095%=      5-min Rain = 0
KJU1 081523Z 00003KT 04/03 A3044 RMK A01 T00390032  RH  095%=      5-min Rain = 0
KJU1 081524Z 35003KT 04/03 A3044 RMK A01 T00400033  RH  095%=      5-min Rain = 0
KJU1 081525Z 35005KT 04/03 A3044 RMK A01 T00400033  RH  095%=      5-min Rain = 0
KJU1 081526Z 35005KT 04/03 A3044 RMK A01 T00400033  RH  095%=      5-min Rain = 0
KJU1 081527Z 34007KT 04/03 A3044 RMK A01 T00400033  RH  095%=      5-min Rain = 0
KJU1 081528Z 34006KT 04/03 A3044 RMK A01 T00400033  RH  095%=      5-min Rain = 0
KJU1 081529Z 34006KT 04/03 A3044 RMK A01 T00400033  RH  095%=      5-min Rain = 0
KJU1 081530Z 34007KT 04/03 A3044 RMK A01 T00400032  RH  095%=      5-min Rain = 0
KJU1 081531Z 35007KT 04/03 A3044 RMK A01 T00390032  RH  095%=      5-min Rain = 0
KJU1 081532Z 00005KT 04/03 A3044 RMK A01 T00400032  RH  095%=      5-min Rain = 0
KJU1 081533Z 36004KT 04/03 A3044 RMK A01 T00400032  RH  095%=      5-min Rain = 0
KJU1 081534Z 00006KT 04/03 A3044 RMK A01 T00400032  RH  095%=      5-min Rain = 0
KJU1 081535Z 36006KT 04/03 A3044 RMK A01 T00400032  RH  095%=      5-min Rain = 0
KJU1 081536Z 00005KT 04/03 A3044 RMK A01 T00400032  RH  094%=      5-min Rain = 0
KJU1 081537Z 01004KT 04/03 A3044 RMK A01 T00400032  RH  094%=      5-min Rain = 0
KJU1 081538Z 00004KT 04/03 A3044 RMK A01 T00400032  RH  094%=      5-min Rain = 0
KJU1 081539Z 36005KT 04/03 A3044 RMK A01 T00410032  RH  094%=      5-min Rain = 0
KJU1 081540Z 35004KT 04/03 A3044 RMK A01 T00410032  RH  094%=      5-min Rain = 0
KJU1 081541Z 36003KT 04/03 A3044 RMK A01 T00410032  RH  094%=      5-min Rain = 0
KJU1 081542Z 35004KT 04/03 A3044 RMK A01 T00420033  RH  094%=      5-min Rain = 0
KJU1 081543Z 35003KT 04/03 A3044 RMK A01 T00420033  RH  094%=      5-min Rain = 0
KJU1 081544Z 36003KT 04/03 A3044 RMK A01 T00420034  RH  094%=      5-min Rain = 0
KJU1 081545Z 34006KT 04/04 A3044 RMK A01 T00430035  RH  095%=      5-min Rain = 0
KJU1 081546Z 34006KT 04/03 A3044 RMK A01 T00430034  RH  094%=      5-min Rain = 0
KJU1 081547Z 36005KT 04/03 A3044 RMK A01 T00420033  RH  094%=      5-min Rain = 0
KJU1 081548Z 35004KT 04/03 A3044 RMK A01 T00420033  RH  094%=      5-min Rain = 0
KJU1 081549Z 34004KT 04/03 A3044 RMK A01 T00420033  RH  094%=      5-min Rain = 0
KJU1 081550Z 36003KT 04/03 A3044 RMK A01 T00410032  RH  094%=      5-min Rain = 0
KJU1 081551Z 35003KT 04/03 A3044 RMK A01 T00410032  RH  094%=      5-min Rain = 0
KJU1 081552Z 01002KT 04/03 A3044 RMK A01 T00410032  RH  094%=      5-min Rain = 0
KJU1 081553Z 02004KT 04/03 A3043 RMK A01 T00420033  RH  094%=      5-min Rain = 0
KJU1 081554Z 35003KT 04/03 A3043 RMK A01 T00420033  RH  094%=      5-min Rain = 0
KJU1 081555Z 00004KT 04/03 A3043 RMK A01 T00420033  RH  094%=      5-min Rain = 0
KJU1 081556Z 00004KT 04/03 A3043 RMK A01 T00420033  RH  094%=      5-min Rain = 0
KJU1 081557Z 01004KT 04/03 A3043 RMK A01 T00420033  RH  094%=      5-min Rain = 0
KJU1 081558Z 00004KT 04/03 A3043 RMK A01 T00420033  RH  094%=      5-min Rain = 0
KJU1 081559Z 01004KT 04/03 A3043 RMK A01 T00420033  RH  093%=      5-min Rain = 0
KJU1 081600Z 01004KT 04/03 A3043 RMK A01 T00420032  RH  093%=      5-min Rain = 0
KJU1 081601Z 01003KT 04/03 A3043 RMK A01 T00420033  RH  093%=      5-min Rain = 0
KJU1 081602Z 35003KT 04/03 A3043 RMK A01 T00430033  RH  094%=      5-min Rain = 0
KJU1 081603Z 36006KT 04/03 A3043 RMK A01 T00430034  RH  094%=      5-min Rain = 0
KJU1 081604Z 35005KT 04/03 A3043 RMK A01 T00430034  RH  094%=      5-min Rain = 0
KJU1 081605Z 36004KT 04/03 A3043 RMK A01 T00430033  RH  094%=      5-min Rain = 0
KJU1 081606Z 02004KT 04/03 A3043 RMK A01 T00430034  RH  094%=      5-min Rain = 0
KJU1 081607Z 02005KT 04/04 A3043 RMK A01 T00440035  RH  094%=      5-min Rain = 0
KJU1 081608Z 01006KT 04/03 A3043 RMK A01 T00430034  RH  094%=      5-min Rain = 0
KJU1 081609Z 01004KT 04/03 A3043 RMK A01 T00430034  RH  094%=      5-min Rain = 0
KJU1 081610Z 01005KT 04/03 A3042 RMK A01 T00430034  RH  094%=      5-min Rain = 0
KJU1 081611Z 01004KT 04/03 A3042 RMK A01 T00430033  RH  093%=      5-min Rain = 0
KJU1 081612Z 02004KT 04/03 A3042 RMK A01 T00430033  RH  093%=      5-min Rain = 0
KJU1 081613Z 01005KT 04/03 A3043 RMK A01 T00440034  RH  093%=      5-min Rain = 0
KJU1 081614Z 01006KT 04/03 A3043 RMK A01 T00440034  RH  093%=      5-min Rain = 0
KJU1 081615Z 00006KT 04/03 A3043 RMK A01 T00440033  RH  093%=      5-min Rain = 0
KJU1 081616Z 36005KT 04/03 A3043 RMK A01 T00440033  RH  093%=      5-min Rain = 0
KJU1 081617Z 02006KT 04/03 A3043 RMK A01 T00440033  RH  093%=      5-min Rain = 0
KJU1 081618Z 03006KT 04/03 A3043 RMK A01 T00440033  RH  093%=      5-min Rain = 0
KJU1 081619Z 03006KT 04/03 A3043 RMK A01 T00440032  RH  092%=      5-min Rain = 0
KJU1 081620Z 02007KT 04/03 A3043 RMK A01 T00440033  RH  092%=      5-min Rain = 0
KJU1 081621Z 02007KT 04/03 A3043 RMK A01 T00440033  RH  092%=      5-min Rain = 0
KJU1 081622Z 02006KT 04/03 A3043 RMK A01 T00440032  RH  092%=      5-min Rain = 0
KJU1 081623Z 02005KT 04/03 A3043 RMK A01 T00440032  RH  092%=      5-min Rain = 0
KJU1 081624Z 02007KT 04/03 A3043 RMK A01 T00440032  RH  092%=      5-min Rain = 0
KJU1 081625Z 01005KT 04/03 A3043 RMK A01 T00440032  RH  092%=      5-min Rain = 0
KJU1 081626Z 02005KT 05/04 A3043 RMK A01 T00450035  RH  093%=      5-min Rain = 0
KJU1 081627Z 03006KT 05/04 A3043 RMK A01 T00460036  RH  093%=      5-min Rain = 0
KJU1 081628Z 03004KT 05/04 A3043 RMK A01 T00460035  RH  093%=      5-min Rain = 0
KJU1 081629Z 02004KT 05/04 A3043 RMK A01 T00460036  RH  093%=      5-min Rain = 0
KJU1 081630Z 03004KT 05/04 A3042 RMK A01 T00470035  RH  093%=      5-min Rain = 0
KJU1 081631Z 01004KT 05/04 A3042 RMK A01 T00460035  RH  092%=      5-min Rain = 0
KJU1 081632Z 02004KT 05/04 A3042 RMK A01 T00460035  RH  093%=      5-min Rain = 0
KJU1 081633Z 02005KT 05/04 A3042 RMK A01 T00470036  RH  093%=      5-min Rain = 0
KJU1 081634Z 01005KT 05/04 A3042 RMK A01 T00470036  RH  093%=      5-min Rain = 0
KJU1 081635Z 35003KT 05/04 A3042 RMK A01 T00470036  RH  093%=      5-min Rain = 0
KJU1 081636Z 36003KT 05/04 A3042 RMK A01 T00470037  RH  093%=      5-min Rain = 0
KJU1 081637Z 35004KT 05/04 A3042 RMK A01 T00480038  RH  093%=      5-min Rain = 0
KJU1 081638Z 35004KT 05/04 A3042 RMK A01 T00470037  RH  093%=      5-min Rain = 0
KJU1 081639Z 35002KT 05/04 A3042 RMK A01 T00470036  RH  093%=      5-min Rain = 0
KJU1 081640Z 36005KT 05/04 A3042 RMK A01 T00460036  RH  093%=      5-min Rain = 0
KJU1 081641Z 35005KT 05/04 A3042 RMK A01 T00460035  RH  093%=      5-min Rain = 0
KJU1 081642Z 35005KT 05/03 A3042 RMK A01 T00450034  RH  092%=      5-min Rain = 0
KJU1 081643Z 35005KT 05/03 A3042 RMK A01 T00450034  RH  093%=      5-min Rain = 0
KJU1 081644Z 34004KT 05/03 A3042 RMK A01 T00450034  RH  093%=      5-min Rain = 0
KJU1 081645Z 34004KT 05/04 A3042 RMK A01 T00460036  RH  093%=      5-min Rain = 0
KJU1 081646Z 34005KT 05/04 A3042 RMK A01 T00460036  RH  093%=      5-min Rain = 0
KJU1 081647Z 34006KT 05/04 A3042 RMK A01 T00460036  RH  093%=      5-min Rain = 0
KJU1 081648Z 35005KT 05/04 A3042 RMK A01 T00460035  RH  092%=      5-min Rain = 0
KJU1 081649Z 00004KT 05/03 A3042 RMK A01 T00460034  RH  092%=      5-min Rain = 0
KJU1 081650Z 00004KT 05/03 A3042 RMK A01 T00460034  RH  092%=      5-min Rain = 0
KJU1 081651Z 35004KT 05/04 A3042 RMK A01 T00470036  RH  093%=      5-min Rain = 0
KJU1 081652Z 36006KT 05/04 A3042 RMK A01 T00480037  RH  093%=      5-min Rain = 0
KJU1 081653Z 00005KT 05/04 A3042 RMK A01 T00480036  RH  092%=      5-min Rain = 0
KJU1 081654Z 35006KT 05/03 A3042 RMK A01 T00470034  RH  092%=      5-min Rain = 0
KJU1 081655Z 35004KT 05/03 A3042 RMK A01 T00470034  RH  092%=      5-min Rain = 0
KJU1 081656Z 00005KT 05/03 A3042 RMK A01 T00470034  RH  092%=      5-min Rain = 0
KJU1 081657Z 01006KT 05/03 A3042 RMK A01 T00470034  RH  092%=      5-min Rain = 0
KJU1 081658Z 36005KT 05/04 A3042 RMK A01 T00480035  RH  092%=      5-min Rain = 0
KJU1 081659Z 36006KT 05/04 A3042 RMK A01 T00480036  RH  092%=      5-min Rain = 0
KJU1 081700Z 00005KT 05/04 A3042 RMK A01 T00480035  RH  091%=      5-min Rain = 0
KJU1 081701Z 02006KT 05/04 A3042 RMK A01 T00480035  RH  091%=      5-min Rain = 0
KJU1 081702Z 03006KT 05/04 A3042 RMK A01 T00480035  RH  091%=      5-min Rain = 0
KJU1 081703Z 02005KT 05/04 A3042 RMK A01 T00500037  RH  092%=      5-min Rain = 0
KJU1 081704Z 02005KT 05/04 A3042 RMK A01 T00500037  RH  091%=      5-min Rain = 0
KJU1 081705Z 03006KT 05/04 A3042 RMK A01 T00500037  RH  091%=      5-min Rain = 0
KJU1 081706Z 02004KT 05/04 A3042 RMK A01 T00510037  RH  091%=      5-min Rain = 0
KJU1 081707Z 01003KT 05/04 A3041 RMK A01 T00500037  RH  091%=      5-min Rain = 0
KJU1 081708Z 01004KT 05/04 A3041 RMK A01 T00510039  RH  092%=      5-min Rain = 0
KJU1 081709Z 00004KT 05/04 A3041 RMK A01 T00520038  RH  091%=      5-min Rain = 0
KJU1 081710Z 01005KT 05/04 A3041 RMK A01 T00510038  RH  091%=      5-min Rain = 0
KJU1 081711Z 00005KT 05/04 A3041 RMK A01 T00510037  RH  091%=      5-min Rain = 0
KJU1 081712Z 01006KT 05/04 A3041 RMK A01 T00520038  RH  091%=      5-min Rain = 0
KJU1 081713Z 02005KT 05/04 A3041 RMK A01 T00510037  RH  091%=      5-min Rain = 0
KJU1 081714Z 35006KT 05/04 A3041 RMK A01 T00510037  RH  090%=      5-min Rain = 0
KJU1 081715Z 00005KT 05/04 A3041 RMK A01 T00510036  RH  090%=      5-min Rain = 0
KJU1 081716Z 00004KT 05/04 A3041 RMK A01 T00510036  RH  090%=      5-min Rain = 0
KJU1 081717Z 00004KT 05/04 A3041 RMK A01 T00520038  RH  091%=      5-min Rain = 0
KJU1 081718Z 34005KT 05/04 A3041 RMK A01 T00530040  RH  091%=      5-min Rain = 0
KJU1 081719Z 35005KT 05/04 A3041 RMK A01 T00530038  RH  090%=      5-min Rain = 0
KJU1 081720Z 00003KT 05/04 A3041 RMK A01 T00520037  RH  090%=      5-min Rain = 0
KJU1 081721Z 01003KT 05/04 A3041 RMK A01 T00520037  RH  090%=      5-min Rain = 0
KJU1 081722Z 02004KT 05/04 A3041 RMK A01 T00520038  RH  090%=      5-min Rain = 0
KJU1 081723Z 36003KT 05/04 A3041 RMK A01 T00530039  RH  091%=      5-min Rain = 0
KJU1 081724Z 35002KT 05/04 A3041 RMK A01 T00540040  RH  091%=      5-min Rain = 0
KJU1 081725Z 01005KT 05/04 A3041 RMK A01 T00540041  RH  091%=      5-min Rain = 0
KJU1 081726Z 35004KT 05/04 A3041 RMK A01 T00540040  RH  091%=      5-min Rain = 0
KJU1 081727Z 02003KT 05/04 A3041 RMK A01 T00540039  RH  090%=      5-min Rain = 0
KJU1 081728Z 02005KT 05/04 A3041 RMK A01 T00540040  RH  090%=      5-min Rain = 0
KJU1 081729Z 03005KT 05/04 A3041 RMK A01 T00530038  RH  090%=      5-min Rain = 0
KJU1 081730Z 03006KT 05/04 A3041 RMK A01 T00530038  RH  090%=      5-min Rain = 0
KJU1 081731Z 02005KT 05/04 A3041 RMK A01 T00530038  RH  090%=      5-min Rain = 0
KJU1 081732Z 02004KT 05/04 A3041 RMK A01 T00530037  RH  090%=      5-min Rain = 0
KJU1 081733Z 02004KT 05/04 A3041 RMK A01 T00530038  RH  090%=      5-min Rain = 0
KJU1 081734Z 01003KT 05/04 A3041 RMK A01 T00530039  RH  090%=      5-min Rain = 0
KJU1 081735Z 00004KT 06/04 A3041 RMK A01 T00550042  RH  091%=      5-min Rain = 0
KJU1 081736Z 35004KT 06/04 A3041 RMK A01 T00570044  RH  092%=      5-min Rain = 0
KJU1 081737Z 35004KT 06/04 A3041 RMK A01 T00560043  RH  091%=      5-min Rain = 0
KJU1 081738Z 34004KT 06/04 A3041 RMK A01 T00560042  RH  091%=      5-min Rain = 0
KJU1 081739Z 34005KT 06/04 A3041 RMK A01 T00560042  RH  091%=      5-min Rain = 0
KJU1 081740Z 36004KT 06/04 A3041 RMK A01 T00560041  RH  090%=      5-min Rain = 0
KJU1 081741Z 01003KT 06/04 A3041 RMK A01 T00560041  RH  090%=      5-min Rain = 0
KJU1 081742Z 36004KT 06/04 A3041 RMK A01 T00560042  RH  091%=      5-min Rain = 0
KJU1 081743Z 35003KT 06/04 A3041 RMK A01 T00570042  RH  090%=      5-min Rain = 0
KJU1 081744Z 01003KT 06/04 A3041 RMK A01 T00580044  RH  091%=      5-min Rain = 0
KJU1 081745Z 01005KT 06/05 A304 RMK A01 T00590045  RH  091%=      5-min Rain = 0
KJU1 081746Z 36005KT 06/04 A304 RMK A01 T00590043  RH  090%=      5-min Rain = 0
KJU1 081747Z 35004KT 06/04 A304 RMK A01 T00580042  RH  090%=      5-min Rain = 0
KJU1 081748Z 35003KT 06/04 A304 RMK A01 T00580042  RH  090%=      5-min Rain = 0
KJU1 081749Z 36003KT 06/04 A304 RMK A01 T00580041  RH  089%=      5-min Rain = 0
KJU1 081750Z 36003KT 06/04 A304 RMK A01 T00570040  RH  089%=      5-min Rain = 0
KJU1 081751Z 35003KT 06/04 A304 RMK A01 T00580042  RH  089%=      5-min Rain = 0
KJU1 081752Z 34004KT 06/04 A304 RMK A01 T00580042  RH  089%=      5-min Rain = 0
KJU1 081753Z 35004KT 06/04 A304 RMK A01 T00590043  RH  090%=      5-min Rain = 0
KJU1 081754Z 02003KT 06/04 A304 RMK A01 T00590043  RH  089%=      5-min Rain = 0
KJU1 081755Z 02004KT 06/04 A304 RMK A01 T00590043  RH  089%=      5-min Rain = 0
KJU1 081756Z 01006KT 06/04 A304 RMK A01 T00600044  RH  090%=      5-min Rain = 0
KJU1 081757Z 01005KT 06/04 A304 RMK A01 T00600043  RH  089%=      5-min Rain = 0
KJU1 081758Z 01005KT 06/04 A304 RMK A01 T00600043  RH  089%=      5-min Rain = 0
KJU1 081759Z 03006KT 06/04 A3039 RMK A01 T00600043  RH  089%=      5-min Rain = 0
KJU1 081800Z 01005KT 06/04 A3039 RMK A01 T00600044  RH  089%=      5-min Rain = 0
KJU1 081801Z 00004KT 06/05 A3039 RMK A01 T00610045  RH  089%=      5-min Rain = 0
KJU1 081802Z 35005KT 06/05 A3039 RMK A01 T00620046  RH  089%=      5-min Rain = 0
KJU1 081803Z 01004KT 06/04 A3039 RMK A01 T00610044  RH  088%=      5-min Rain = 0
KJU1 081804Z 01004KT 06/04 A3039 RMK A01 T00610044  RH  089%=      5-min Rain = 0
KJU1 081805Z 01003KT 06/05 A3039 RMK A01 T00630047  RH  090%=      5-min Rain = 0
KJU1 081806Z 02003KT 06/05 A3039 RMK A01 T00630047  RH  089%=      5-min Rain = 0
KJU1 081807Z 01003KT 06/05 A3039 RMK A01 T00640048  RH  089%=      5-min Rain = 0
KJU1 081808Z 00004KT 07/05 A3039 RMK A01 T00650049  RH  090%=      5-min Rain = 0
KJU1 081809Z 34003KT 07/05 A3039 RMK A01 T00650048  RH  089%=      5-min Rain = 0
KJU1 081810Z 34004KT 06/05 A3039 RMK A01 T00640046  RH  088%=      5-min Rain = 0
KJU1 081811Z 35002KT 06/05 A3039 RMK A01 T00640046  RH  088%=      5-min Rain = 0
KJU1 081812Z 01003KT 06/05 A3039 RMK A01 T00640046  RH  088%=      5-min Rain = 0
KJU1 081813Z 03002KT 06/05 A3039 RMK A01 T00640046  RH  088%=      5-min Rain = 0
KJU1 081814Z 02002KT 06/05 A3039 RMK A01 T00640045  RH  088%=      5-min Rain = 0
KJU1 081815Z 01003KT 07/05 A3039 RMK A01 T00650047  RH  088%=      5-min Rain = 0
KJU1 081816Z 02003KT 07/05 A3039 RMK A01 T00650046  RH  088%=      5-min Rain = 0
KJU1 081817Z 02006KT 07/05 A3039 RMK A01 T00660048  RH  089%=      5-min Rain = 0
KJU1 081818Z 00006KT 07/05 A3039 RMK A01 T00660048  RH  088%=      5-min Rain = 0
KJU1 081819Z 02004KT 07/05 A3039 RMK A01 T00660047  RH  088%=      5-min Rain = 0
KJU1 081820Z 01005KT 07/05 A3039 RMK A01 T00660048  RH  088%=      5-min Rain = 0
KJU1 081821Z 02005KT 07/05 A3039 RMK A01 T00660047  RH  088%=      5-min Rain = 0
KJU1 081822Z 00005KT 07/05 A3039 RMK A01 T00660047  RH  087%=      5-min Rain = 0
KJU1 081823Z 01006KT 07/05 A3039 RMK A01 T00650045  RH  087%=      5-min Rain = 0
KJU1 081824Z 01005KT 07/04 A3039 RMK A01 T00650044  RH  087%=      5-min Rain = 0
KJU1 081825Z 02004KT 06/04 A3039 RMK A01 T00640044  RH  087%=      5-min Rain = 0
KJU1 081826Z 02005KT 07/05 A3038 RMK A01 T00650045  RH  088%=      5-min Rain = 0
KJU1 081827Z 01005KT 07/05 A3038 RMK A01 T00670049  RH  088%=      5-min Rain = 0
KJU1 081828Z 01004KT 07/05 A3038 RMK A01 T00670047  RH  087%=      5-min Rain = 0
KJU1 081829Z 03004KT 07/05 A3038 RMK A01 T00660048  RH  088%=      5-min Rain = 0
KJU1 081830Z 04005KT 07/05 A3038 RMK A01 T00670049  RH  088%=      5-min Rain = 0
KJU1 081831Z 04005KT 07/05 A3038 RMK A01 T00670048  RH  088%=      5-min Rain = 0
KJU1 081832Z 03005KT 07/05 A3038 RMK A01 T00660047  RH  088%=      5-min Rain = 0
KJU1 081833Z 03005KT 07/05 A3038 RMK A01 T00680051  RH  089%=      5-min Rain = 0
KJU1 081834Z 04005KT 07/05 A3038 RMK A01 T00680049  RH  088%=      5-min Rain = 0
KJU1 081835Z 04004KT 07/05 A3038 RMK A01 T00680049  RH  088%=      5-min Rain = 0
KJU1 081836Z 04003KT 07/05 A3038 RMK A01 T00680049  RH  088%=      5-min Rain = 0
KJU1 081837Z 04003KT 07/05 A3037 RMK A01 T00680049  RH  088%=      5-min Rain = 0
KJU1 081838Z 03004KT 07/05 A3037 RMK A01 T00680049  RH  088%=      5-min Rain = 0
KJU1 081839Z 03004KT 07/05 A3037 RMK A01 T00680050  RH  088%=      5-min Rain = 0
KJU1 081840Z 03006KT 07/05 A3037 RMK A01 T00680050  RH  088%=      5-min Rain = 0
KJU1 081841Z 02005KT 07/05 A3037 RMK A01 T00690050  RH  088%=      5-min Rain = 0
KJU1 081842Z 01005KT 07/05 A3037 RMK A01 T00680047  RH  087%=      5-min Rain = 0
KJU1 081843Z 35003KT 07/05 A3037 RMK A01 T00670048  RH  088%=      5-min Rain = 0
KJU1 081844Z 35004KT 07/05 A3037 RMK A01 T00680048  RH  088%=      5-min Rain = 0
KJU1 081845Z 34004KT 07/05 A3037 RMK A01 T00670048  RH  087%=      5-min Rain = 0
KJU1 081846Z 34003KT 07/05 A3037 RMK A01 T00670047  RH  087%=      5-min Rain = 0
KJU1 081847Z 33003KT 07/05 A3037 RMK A01 T00670047  RH  087%=      5-min Rain = 0
KJU1 081848Z 34002KT 07/05 A3037 RMK A01 T00670047  RH  087%=      5-min Rain = 0
KJU1 081849Z 00002KT 07/05 A3037 RMK A01 T00670047  RH  087%=      5-min Rain = 0
KJU1 081850Z 00003KT 07/05 A3037 RMK A01 T00680048  RH  087%=      5-min Rain = 0
KJU1 081851Z 02003KT 07/05 A3037 RMK A01 T00680049  RH  088%=      5-min Rain = 0
KJU1 081852Z 05004KT 07/05 A3037 RMK A01 T00700052  RH  088%=      5-min Rain = 0
KJU1 081853Z 05004KT 07/05 A3037 RMK A01 T00710053  RH  088%=      5-min Rain = 0
KJU1 081854Z 05004KT 07/05 A3037 RMK A01 T00710052  RH  088%=      5-min Rain = 0
KJU1 081855Z 05003KT 07/05 A3037 RMK A01 T00690050  RH  087%=      5-min Rain = 0
KJU1 081856Z 06004KT 07/05 A3037 RMK A01 T00690050  RH  088%=      5-min Rain = 0
KJU1 081857Z 05003KT 07/05 A3037 RMK A01 T00690050  RH  088%=      5-min Rain = 0
KJU1 081858Z 04002KT 07/05 A3037 RMK A01 T00690051  RH  088%=      5-min Rain = 0
KJU1 081859Z 04001KT 07/05 A3037 RMK A01 T00690050  RH  088%=      5-min Rain = 0
KJU1 081900Z 04003KT 07/05 A3037 RMK A01 T00700051  RH  088%=      5-min Rain = 0
KJU1 081901Z 36003KT 07/05 A3036 RMK A01 T00700053  RH  088%=      5-min Rain = 0
KJU1 081902Z 01001KT 07/05 A3036 RMK A01 T00710053  RH  088%=      5-min Rain = 0
KJU1 081903Z 04002KT 07/05 A3036 RMK A01 T00710053  RH  088%=      5-min Rain = 0
KJU1 081904Z 03004KT 07/06 A3036 RMK A01 T00730056  RH  089%=      5-min Rain = 0
KJU1 081905Z 01003KT 07/05 A3036 RMK A01 T00730054  RH  088%=      5-min Rain = 0
KJU1 081906Z 02003KT 07/05 A3036 RMK A01 T00720053  RH  087%=      5-min Rain = 0
KJU1 081907Z 01003KT 07/05 A3036 RMK A01 T00720053  RH  088%=      5-min Rain = 0
KJU1 081908Z 02002KT 07/05 A3036 RMK A01 T00720053  RH  088%=      5-min Rain = 0
KJU1 081909Z 02003KT 07/05 A3036 RMK A01 T00730054  RH  088%=      5-min Rain = 0
KJU1 081910Z 03004KT 07/05 A3036 RMK A01 T00730052  RH  087%=      5-min Rain = 0
KJU1 081911Z 02003KT 07/05 A3036 RMK A01 T00720051  RH  087%=      5-min Rain = 0
KJU1 081912Z 02003KT 07/05 A3036 RMK A01 T00710051  RH  087%=      5-min Rain = 0
KJU1 081913Z 01003KT 07/05 A3036 RMK A01 T00720051  RH  087%=      5-min Rain = 0
KJU1 081914Z 35003KT 07/05 A3035 RMK A01 T00720052  RH  087%=      5-min Rain = 0
KJU1 081915Z 35004KT 07/05 A3035 RMK A01 T00720053  RH  087%=      5-min Rain = 0
KJU1 081916Z 02004KT 07/05 A3035 RMK A01 T00740054  RH  088%=      5-min Rain = 0
KJU1 081917Z 02004KT 08/06 A3035 RMK A01 T00750056  RH  088%=      5-min Rain = 0
KJU1 081918Z 01004KT 08/06 A3035 RMK A01 T00750055  RH  087%=      5-min Rain = 0
KJU1 081919Z 01003KT 08/05 A3035 RMK A01 T00750054  RH  087%=      5-min Rain = 0
KJU1 081920Z 02003KT 07/05 A3035 RMK A01 T00740054  RH  087%=      5-min Rain = 0
KJU1 081921Z 00003KT 07/05 A3035 RMK A01 T00740053  RH  087%=      5-min Rain = 0
KJU1 081922Z 00003KT 07/05 A3035 RMK A01 T00740054  RH  087%=      5-min Rain = 0
KJU1 081923Z 35006KT 08/05 A3035 RMK A01 T00750054  RH  087%=      5-min Rain = 0
KJU1 081924Z 35005KT 07/05 A3035 RMK A01 T00740053  RH  086%=      5-min Rain = 0
KJU1 081925Z 34004KT 07/05 A3034 RMK A01 T00730051  RH  086%=      5-min Rain = 0
KJU1 081926Z 34004KT 07/05 A3034 RMK A01 T00730052  RH  087%=      5-min Rain = 0
KJU1 081927Z 34004KT 07/05 A3034 RMK A01 T00740053  RH  087%=      5-min Rain = 0
KJU1 081928Z 34004KT 07/05 A3034 RMK A01 T00740053  RH  087%=      5-min Rain = 0
KJU1 081929Z 33004KT 07/05 A3034 RMK A01 T00730052  RH  086%=      5-min Rain = 0
KJU1 081930Z 34004KT 07/05 A3034 RMK A01 T00730052  RH  087%=      5-min Rain = 0
KJU1 081931Z 34005KT 07/05 A3034 RMK A01 T00730053  RH  087%=      5-min Rain = 0
KJU1 081932Z 01006KT 07/05 A3034 RMK A01 T00740053  RH  087%=      5-min Rain = 0
KJU1 081933Z 01004KT 07/05 A3034 RMK A01 T00740053  RH  087%=      5-min Rain = 0
KJU1 081934Z 35004KT 07/05 A3034 RMK A01 T00740054  RH  087%=      5-min Rain = 0
KJU1 081935Z 34004KT 08/05 A3034 RMK A01 T00750054  RH  087%=      5-min Rain = 0
KJU1 081936Z 35004KT 08/05 A3034 RMK A01 T00750054  RH  087%=      5-min Rain = 0
KJU1 081937Z 36003KT 08/05 A3034 RMK A01 T00750053  RH  086%=      5-min Rain = 0
KJU1 081938Z 01003KT 08/05 A3034 RMK A01 T00750054  RH  087%=      5-min Rain = 0
KJU1 081939Z 36004KT 08/05 A3034 RMK A01 T00750054  RH  087%=      5-min Rain = 0
KJU1 081940Z 36005KT 08/06 A3034 RMK A01 T00760055  RH  087%=      5-min Rain = 0
KJU1 081941Z 36005KT 08/05 A3034 RMK A01 T00750054  RH  086%=      5-min Rain = 0
KJU1 081942Z 01005KT 08/05 A3034 RMK A01 T00750054  RH  086%=      5-min Rain = 0
KJU1 081943Z 34004KT 08/06 A3034 RMK A01 T00760055  RH  087%=      5-min Rain = 0
KJU1 081944Z 35004KT 08/06 A3034 RMK A01 T00770057  RH  087%=      5-min Rain = 0
KJU1 081945Z 36004KT 08/06 A3034 RMK A01 T00760055  RH  086%=      5-min Rain = 0
KJU1 081946Z 34003KT 08/06 A3034 RMK A01 T00760055  RH  086%=      5-min Rain = 0
KJU1 081947Z 36003KT 08/06 A3034 RMK A01 T00770056  RH  087%=      5-min Rain = 0
KJU1 081948Z 35003KT 08/06 A3034 RMK A01 T00760056  RH  087%=      5-min Rain = 0
KJU1 081949Z 34004KT 08/06 A3034 RMK A01 T00770055  RH  086%=      5-min Rain = 0
KJU1 081950Z 35003KT 08/06 A3034 RMK A01 T00770055  RH  086%=      5-min Rain = 0
KJU1 081951Z 33005KT 08/06 A3034 RMK A01 T00770055  RH  086%=      5-min Rain = 0
KJU1 081952Z 34004KT 08/05 A3034 RMK A01 T00770054  RH  086%=      5-min Rain = 0
KJU1 081953Z 01003KT 08/06 A3034 RMK A01 T00770056  RH  086%=      5-min Rain = 0
KJU1 081954Z 02003KT 08/06 A3034 RMK A01 T00780055  RH  086%=      5-min Rain = 0
KJU1 081955Z 03004KT 08/06 A3034 RMK A01 T00780056  RH  086%=      5-min Rain = 0
KJU1 081956Z 02006KT 08/06 A3034 RMK A01 T00790058  RH  086%=      5-min Rain = 0
KJU1 081957Z 02005KT 08/06 A3034 RMK A01 T00790056  RH  086%=      5-min Rain = 0
KJU1 081958Z 02003KT 08/06 A3034 RMK A01 T00790056  RH  086%=      5-min Rain = 0
KJU1 081959Z 02004KT 08/06 A3034 RMK A01 T00790056  RH  086%=      5-min Rain = 0
KJU1 082000Z 02005KT 08/06 A3034 RMK A01 T00790056  RH  086%=      5-min Rain = 0
KJU1 082001Z 02005KT 08/06 A3034 RMK A01 T00790056  RH  086%=      5-min Rain = 0
KJU1 082002Z 02004KT 08/06 A3034 RMK A01 T00780056  RH  086%=      5-min Rain = 0
KJU1 082003Z 02004KT 08/06 A3034 RMK A01 T00790056  RH  086%=      5-min Rain = 0
KJU1 082004Z 03004KT 08/06 A3034 RMK A01 T00800059  RH  087%=      5-min Rain = 0
KJU1 082005Z 02005KT 08/06 A3034 RMK A01 T00810059  RH  086%=      5-min Rain = 0
KJU1 082006Z 01006KT 08/06 A3034 RMK A01 T00810059  RH  086%=      5-min Rain = 0
KJU1 082007Z 00004KT 08/06 A3034 RMK A01 T00810056  RH  084%=      5-min Rain = 0
KJU1 082008Z 00003KT 08/06 A3034 RMK A01 T00800055  RH  084%=      5-min Rain = 0
KJU1 082009Z 35002KT 08/06 A3034 RMK A01 T00800057  RH  085%=      5-min Rain = 0
KJU1 082010Z 35004KT 08/06 A3034 RMK A01 T00820059  RH  085%=      5-min Rain = 0
KJU1 082011Z 00003KT 08/06 A3034 RMK A01 T00820059  RH  085%=      5-min Rain = 0
KJU1 082012Z 03004KT 08/06 A3034 RMK A01 T00830059  RH  085%=      5-min Rain = 0
KJU1 082013Z 02005KT 08/06 A3034 RMK A01 T00830057  RH  084%=      5-min Rain = 0
KJU1 082014Z 01004KT 08/06 A3034 RMK A01 T00820056  RH  084%=      5-min Rain = 0
KJU1 082015Z 03004KT 08/06 A3034 RMK A01 T00810055  RH  084%=      5-min Rain = 0
KJU1 082016Z 04005KT 08/06 A3034 RMK A01 T00810056  RH  084%=      5-min Rain = 0
KJU1 082017Z 03004KT 08/06 A3034 RMK A01 T00810056  RH  084%=      5-min Rain = 0
KJU1 082018Z 02004KT 08/06 A3034 RMK A01 T00810056  RH  084%=      5-min Rain = 0
KJU1 082019Z 03005KT 08/06 A3034 RMK A01 T00810057  RH  085%=      5-min Rain = 0
KJU1 082020Z 36005KT 08/06 A3034 RMK A01 T00820057  RH  084%=      5-min Rain = 0
KJU1 082021Z 01004KT 08/06 A3034 RMK A01 T00820056  RH  084%=      5-min Rain = 0
KJU1 082022Z 36003KT 08/06 A3034 RMK A01 T00820058  RH  085%=      5-min Rain = 0
KJU1 082023Z 35003KT 08/06 A3034 RMK A01 T00830059  RH  085%=      5-min Rain = 0
KJU1 082024Z 02004KT 08/06 A3034 RMK A01 T00830058  RH  084%=      5-min Rain = 0
KJU1 082025Z 03004KT 08/06 A3034 RMK A01 T00830058  RH  084%=      5-min Rain = 0
KJU1 082026Z 04004KT 08/06 A3034 RMK A01 T00830058  RH  084%=      5-min Rain = 0
KJU1 082027Z 05004KT 08/06 A3034 RMK A01 T00830058  RH  084%=      5-min Rain = 0
KJU1 082028Z 03003KT 08/06 A3034 RMK A01 T00830058  RH  084%=      5-min Rain = 0
KJU1 082029Z 02003KT 08/06 A3034 RMK A01 T00830058  RH  084%=      5-min Rain = 0
KJU1 082030Z 02002KT 08/06 A3034 RMK A01 T00830058  RH  084%=      5-min Rain = 0
KJU1 082031Z 01003KT 08/06 A3034 RMK A01 T00830059  RH  085%=      5-min Rain = 0
KJU1 082032Z 02004KT 08/06 A3034 RMK A01 T00830059  RH  085%=      5-min Rain = 0
KJU1 082033Z 03005KT 08/06 A3034 RMK A01 T00830059  RH  085%=      5-min Rain = 0
KJU1 082034Z 03005KT 08/06 A3034 RMK A01 T00840059  RH  084%=      5-min Rain = 0
KJU1 082035Z 02005KT 08/06 A3034 RMK A01 T00840058  RH  084%=      5-min Rain = 0
KJU1 082036Z 03004KT 08/06 A3034 RMK A01 T00840060  RH  084%=      5-min Rain = 0
KJU1 082037Z 03005KT 09/06 A3034 RMK A01 T00850060  RH  084%=      5-min Rain = 0
KJU1 082038Z 03005KT 09/06 A3034 RMK A01 T00850059  RH  084%=      5-min Rain = 0
KJU1 082039Z 00004KT 09/06 A3034 RMK A01 T00850060  RH  084%=      5-min Rain = 0
KJU1 082040Z 00003KT 09/06 A3034 RMK A01 T00860061  RH  084%=      5-min Rain = 0
KJU1 082041Z 02004KT 09/06 A3034 RMK A01 T00860061  RH  084%=      5-min Rain = 0
KJU1 082042Z 03004KT 09/06 A3034 RMK A01 T00870062  RH  084%=      5-min Rain = 0
KJU1 082043Z 02006KT 09/06 A3033 RMK A01 T00870061  RH  084%=      5-min Rain = 0
KJU1 082044Z 02005KT 09/06 A3033 RMK A01 T00870060  RH  083%=      5-min Rain = 0
KJU1 082045Z 02004KT 09/06 A3033 RMK A01 T00860059  RH  083%=      5-min Rain = 0
KJU1 082046Z 04005KT 09/06 A3033 RMK A01 T00860059  RH  083%=      5-min Rain = 0
KJU1 082047Z 02005KT 09/06 A3033 RMK A01 T00860059  RH  083%=      5-min Rain = 0
KJU1 082048Z 01004KT 09/06 A3033 RMK A01 T00860059  RH  083%=      5-min Rain = 0
KJU1 082049Z 04005KT 09/06 A3033 RMK A01 T00860060  RH  084%=      5-min Rain = 0
KJU1 082050Z 04005KT 09/06 A3033 RMK A01 T00870061  RH  084%=      5-min Rain = 0
KJU1 082051Z 04005KT 09/06 A3033 RMK A01 T00870060  RH  083%=      5-min Rain = 0
KJU1 082052Z 03003KT 09/06 A3033 RMK A01 T00860059  RH  083%=      5-min Rain = 0
KJU1 082053Z 04004KT 09/06 A3033 RMK A01 T00860060  RH  084%=      5-min Rain = 0
KJU1 082054Z 03006KT 09/06 A3033 RMK A01 T00880064  RH  085%=      5-min Rain = 0
KJU1 082055Z 03006KT 09/06 A3033 RMK A01 T00880061  RH  083%=      5-min Rain = 0
KJU1 082056Z 03005KT 09/06 A3033 RMK A01 T00870060  RH  083%=      5-min Rain = 0
KJU1 082057Z 03004KT 09/06 A3033 RMK A01 T00870060  RH  083%=      5-min Rain = 0
KJU1 082058Z 04004KT 09/06 A3033 RMK A01 T00860059  RH  083%=      5-min Rain = 0
KJU1 082059Z 04005KT 09/06 A3033 RMK A01 T00870061  RH  084%=      5-min Rain = 0
KJU1 082100Z 04004KT 09/06 A3033 RMK A01 T00870060  RH  083%=      5-min Rain = 0
KJU1 082101Z 04004KT 09/06 A3033 RMK A01 T00870059  RH  083%=      5-min Rain = 0
KJU1 082102Z 05005KT 09/06 A3033 RMK A01 T00870062  RH  084%=      5-min Rain = 0
KJU1 082103Z 04005KT 09/06 A3033 RMK A01 T00890062  RH  084%=      5-min Rain = 0
KJU1 082104Z 04006KT 09/06 A3033 RMK A01 T00880061  RH  083%=      5-min Rain = 0
KJU1 082105Z 04004KT 09/06 A3033 RMK A01 T00880061  RH  083%=      5-min Rain = 0
KJU1 082106Z 05004KT 09/06 A3033 RMK A01 T00880062  RH  084%=      5-min Rain = 0
KJU1 082107Z 05005KT 09/06 A3033 RMK A01 T00880063  RH  084%=      5-min Rain = 0
KJU1 082108Z 03005KT 09/06 A3033 RMK A01 T00890064  RH  084%=      5-min Rain = 0
KJU1 082109Z 01003KT 09/06 A3033 RMK A01 T00890061  RH  082%=      5-min Rain = 0
KJU1 082110Z 35004KT 09/06 A3033 RMK A01 T00890061  RH  083%=      5-min Rain = 0
KJU1 082111Z 36004KT 09/06 A3033 RMK A01 T00890060  RH  082%=      5-min Rain = 0
KJU1 082112Z 01003KT 09/06 A3033 RMK A01 T00880060  RH  082%=      5-min Rain = 0
KJU1 082113Z 04003KT 09/06 A3033 RMK A01 T00880062  RH  083%=      5-min Rain = 0
KJU1 082114Z 04005KT 09/06 A3033 RMK A01 T00890063  RH  084%=      5-min Rain = 0
KJU1 082115Z 04006KT 09/06 A3033 RMK A01 T00890062  RH  083%=      5-min Rain = 0
KJU1 082116Z 03005KT 09/06 A3033 RMK A01 T00890062  RH  083%=      5-min Rain = 0
KJU1 082117Z 03005KT 09/06 A3033 RMK A01 T00890061  RH  083%=      5-min Rain = 0
KJU1 082118Z 05006KT 09/06 A3033 RMK A01 T00880062  RH  084%=      5-min Rain = 0
KJU1 082119Z 06006KT 09/06 A3033 RMK A01 T00890062  RH  083%=      5-min Rain = 0
KJU1 082120Z 05005KT 09/06 A3033 RMK A01 T00880061  RH  083%=      5-min Rain = 0
KJU1 082121Z 01004KT 09/06 A3033 RMK A01 T00880061  RH  083%=      5-min Rain = 0
KJU1 082122Z 02004KT 09/06 A3033 RMK A01 T00890063  RH  084%=      5-min Rain = 0
KJU1 082123Z 02005KT 09/06 A3033 RMK A01 T00890062  RH  083%=      5-min Rain = 0
KJU1 082124Z 03004KT 09/06 A3033 RMK A01 T00880060  RH  082%=      5-min Rain = 0
KJU1 082125Z 03006KT 09/06 A3033 RMK A01 T00880060  RH  083%=      5-min Rain = 0
KJU1 082126Z 04006KT 09/06 A3033 RMK A01 T00880060  RH  083%=      5-min Rain = 0
KJU1 082127Z 04007KT 09/06 A3033 RMK A01 T00880061  RH  083%=      5-min Rain = 0
KJU1 082128Z 03005KT 09/06 A3033 RMK A01 T00880060  RH  083%=      5-min Rain = 0
KJU1 082129Z 04006KT 09/06 A3033 RMK A01 T00880061  RH  083%=      5-min Rain = 0
KJU1 082130Z 04006KT 09/06 A3033 RMK A01 T00880061  RH  083%=      5-min Rain = 0
KJU1 082131Z 04006KT 09/06 A3033 RMK A01 T00880061  RH  083%=      5-min Rain = 0
KJU1 082132Z 02004KT 09/06 A3033 RMK A01 T00880060  RH  083%=      5-min Rain = 0
KJU1 082133Z 02006KT 09/06 A3033 RMK A01 T00880062  RH  084%=      5-min Rain = 0
KJU1 082134Z 02006KT 09/06 A3033 RMK A01 T00880060  RH  083%=      5-min Rain = 0
KJU1 082135Z 01005KT 09/06 A3033 RMK A01 T00870060  RH  083%=      5-min Rain = 0
KJU1 082136Z 00004KT 09/06 A3033 RMK A01 T00870061  RH  083%=      5-min Rain = 0
KJU1 082137Z 03004KT 09/06 A3033 RMK A01 T00880061  RH  084%=      5-min Rain = 0
KJU1 082138Z 04006KT 09/06 A3033 RMK A01 T00880062  RH  084%=      5-min Rain = 0
KJU1 082139Z 05005KT 09/06 A3033 RMK A01 T00890061  RH  083%=      5-min Rain = 0
KJU1 082140Z 03005KT 09/06 A3033 RMK A01 T00890064  RH  084%=      5-min Rain = 0
KJU1 082141Z 03006KT 09/06 A3033 RMK A01 T00900063  RH  083%=      5-min Rain = 0
KJU1 082142Z 04007KT 09/06 A3033 RMK A01 T00890062  RH  083%=      5-min Rain = 0
KJU1 082143Z 02005KT 09/06 A3033 RMK A01 T00890062  RH  083%=      5-min Rain = 0
KJU1 082144Z 01005KT 09/06 A3033 RMK A01 T00890063  RH  084%=      5-min Rain = 0
KJU1 082145Z 01004KT 09/06 A3033 RMK A01 T00890061  RH  083%=      5-min Rain = 0
KJU1 082146Z 36004KT 09/06 A3033 RMK A01 T00890061  RH  083%=      5-min Rain = 0
KJU1 082147Z 36004KT 09/06 A3033 RMK A01 T00890061  RH  083%=      5-min Rain = 0
KJU1 082148Z 01003KT 09/06 A3033 RMK A01 T00890062  RH  083%=      5-min Rain = 0
KJU1 082149Z 02005KT 09/06 A3033 RMK A01 T00890062  RH  083%=      5-min Rain = 0
KJU1 082150Z 01005KT 09/06 A3033 RMK A01 T00900063  RH  083%=      5-min Rain = 0
KJU1 082151Z 02004KT 09/06 A3033 RMK A01 T00890061  RH  082%=      5-min Rain = 0
KJU1 082152Z 03003KT 09/06 A3033 RMK A01 T00890062  RH  083%=      5-min Rain = 0
KJU1 082153Z 04004KT 09/06 A3033 RMK A01 T00900063  RH  083%=      5-min Rain = 0
KJU1 082154Z 03004KT 09/06 A3033 RMK A01 T00900063  RH  083%=      5-min Rain = 0
KJU1 082155Z 03005KT 09/06 A3033 RMK A01 T00900063  RH  083%=      5-min Rain = 0
KJU1 082156Z 02005KT 09/06 A3033 RMK A01 T00900063  RH  083%=      5-min Rain = 0
KJU1 082157Z 03004KT 09/06 A3033 RMK A01 T00900062  RH  083%=      5-min Rain = 0
KJU1 082158Z 04004KT 09/06 A3033 RMK A01 T00900062  RH  083%=      5-min Rain = 0
KJU1 082159Z 03003KT 09/06 A3033 RMK A01 T00900063  RH  083%=      5-min Rain = 0
KJU1 082200Z 02005KT 09/06 A3033 RMK A01 T00900064  RH  083%=      5-min Rain = 0
KJU1 082201Z 03005KT 09/06 A3033 RMK A01 T00900063  RH  083%=      5-min Rain = 0
KJU1 082202Z 02005KT 09/06 A3033 RMK A01 T00900062  RH  083%=      5-min Rain = 0
KJU1 082203Z 01004KT 09/06 A3033 RMK A01 T00890060  RH  082%=      5-min Rain = 0
KJU1 082204Z 02004KT 09/06 A3033 RMK A01 T00890060  RH  082%=      5-min Rain = 0
KJU1 082205Z 03002KT 09/06 A3033 RMK A01 T00880060  RH  083%=      5-min Rain = 0
KJU1 082206Z 05002KT 09/06 A3032 RMK A01 T00890063  RH  084%=      5-min Rain = 0
KJU1 082207Z 02003KT 09/06 A3032 RMK A01 T00900064  RH  084%=      5-min Rain = 0
KJU1 082208Z 02004KT 09/06 A3033 RMK A01 T00900063  RH  083%=      5-min Rain = 0
KJU1 082209Z 03004KT 09/06 A3033 RMK A01 T00900062  RH  083%=      5-min Rain = 0
KJU1 082210Z 02004KT 09/06 A3033 RMK A01 T00900062  RH  083%=      5-min Rain = 0
KJU1 082211Z 03004KT 09/06 A3033 RMK A01 T00900061  RH  082%=      5-min Rain = 0
KJU1 082212Z 03005KT 09/06 A3033 RMK A01 T00900062  RH  083%=      5-min Rain = 0
KJU1 082213Z 03004KT 09/06 A3033 RMK A01 T00900061  RH  082%=      5-min Rain = 0
KJU1 082214Z 04004KT 09/06 A3033 RMK A01 T00900061  RH  082%=      5-min Rain = 0
KJU1 082215Z 03004KT 09/06 A3033 RMK A01 T00900061  RH  082%=      5-min Rain = 0
KJU1 082216Z 04003KT 09/06 A3033 RMK A01 T00900060  RH  082%=      5-min Rain = 0
KJU1 082217Z 04003KT 09/06 A3033 RMK A01 T00890060  RH  082%=      5-min Rain = 0
KJU1 082218Z 03002KT 09/06 A3033 RMK A01 T00890060  RH  082%=      5-min Rain = 0
KJU1 082219Z 03003KT 09/06 A3033 RMK A01 T00900063  RH  083%=      5-min Rain = 0
KJU1 082220Z 03004KT 09/07 A3033 RMK A01 T00910065  RH  084%=      5-min Rain = 0
KJU1 082221Z 04003KT 09/06 A3033 RMK A01 T00910062  RH  082%=      5-min Rain = 0
KJU1 082222Z 03002KT 09/06 A3033 RMK A01 T00900062  RH  083%=      5-min Rain = 0
KJU1 082223Z 02002KT 09/06 A3033 RMK A01 T00900062  RH  083%=      5-min Rain = 0
KJU1 082224Z 07002KT 09/06 A3033 RMK A01 T00900062  RH  083%=      5-min Rain = 0
KJU1 082225Z 06002KT 09/06 A3033 RMK A01 T00910062  RH  083%=      5-min Rain = 0
KJU1 082226Z 07002KT 09/06 A3033 RMK A01 T00900061  RH  082%=      5-min Rain = 0
KJU1 082227Z 06002KT 09/06 A3033 RMK A01 T00900060  RH  082%=      5-min Rain = 0
KJU1 082228Z 07003KT 09/06 A3033 RMK A01 T00900062  RH  083%=      5-min Rain = 0
KJU1 082229Z 09003KT 09/06 A3033 RMK A01 T00900063  RH  083%=      5-min Rain = 0
KJU1 082230Z 11002KT 09/06 A3033 RMK A01 T00900061  RH  082%=      5-min Rain = 0
KJU1 082231Z 10003KT 09/06 A3033 RMK A01 T00900062  RH  082%=      5-min Rain = 0
KJU1 082232Z 09003KT 09/06 A3033 RMK A01 T00900062  RH  083%=      5-min Rain = 0
KJU1 082233Z 09002KT 09/06 A3033 RMK A01 T00900061  RH  082%=      5-min Rain = 0
KJU1 082234Z 10002KT 09/06 A3033 RMK A01 T00900062  RH  082%=      5-min Rain = 0
KJU1 082235Z 07002KT 09/06 A3033 RMK A01 T00900063  RH  083%=      5-min Rain = 0
KJU1 082236Z 04001KT 09/06 A3033 RMK A01 T00900063  RH  083%=      5-min Rain = 0
KJU1 082237Z 05003KT 09/06 A3033 RMK A01 T00900062  RH  082%=      5-min Rain = 0
KJU1 082238Z 05003KT 09/06 A3033 RMK A01 T00900063  RH  083%=      5-min Rain = 0
KJU1 082239Z 04002KT 09/06 A3033 RMK A01 T00910064  RH  083%=      5-min Rain = 0
KJU1 082240Z 02002KT 09/06 A3033 RMK A01 T00920064  RH  083%=      5-min Rain = 0
KJU1 082241Z 02002KT 09/06 A3033 RMK A01 T00920064  RH  083%=      5-min Rain = 0
KJU1 082242Z 00002KT 09/06 A3033 RMK A01 T00920064  RH  083%=      5-min Rain = 0
KJU1 082243Z 01002KT 09/07 A3033 RMK A01 T00920065  RH  083%=      5-min Rain = 0
KJU1 082244Z 02003KT 09/06 A3033 RMK A01 T00920064  RH  082%=      5-min Rain = 0
KJU1 082245Z 03002KT 09/06 A3033 RMK A01 T00920063  RH  082%=      5-min Rain = 0
KJU1 082246Z 01002KT 09/06 A3033 RMK A01 T00920063  RH  082%=      5-min Rain = 0
KJU1 082247Z 01002KT 09/06 A3033 RMK A01 T00920062  RH  082%=      5-min Rain = 0
KJU1 082248Z 01002KT 09/06 A3033 RMK A01 T00910062  RH  082%=      5-min Rain = 0
KJU1 082249Z 03003KT 09/06 A3033 RMK A01 T00920063  RH  082%=      5-min Rain = 0
KJU1 082250Z 03003KT 09/06 A3033 RMK A01 T00920064  RH  083%=      5-min Rain = 0
KJU1 082251Z 04002KT 09/06 A3033 RMK A01 T00920063  RH  082%=      5-min Rain = 0
KJU1 082252Z 05002KT 09/06 A3033 RMK A01 T00920064  RH  083%=      5-min Rain = 0
KJU1 082253Z 05002KT 09/06 A3033 RMK A01 T00920064  RH  083%=      5-min Rain = 0
KJU1 082254Z 04002KT 09/07 A3033 RMK A01 T00920065  RH  083%=      5-min Rain = 0
KJU1 082255Z 04002KT 09/07 A3033 RMK A01 T00920065  RH  083%=      5-min Rain = 0
KJU1 082256Z 03002KT 09/06 A3033 RMK A01 T00910063  RH  083%=      5-min Rain = 0
KJU1 082257Z 03002KT 09/06 A3033 RMK A01 T00910063  RH  083%=      5-min Rain = 0
KJU1 082258Z 03001KT 09/06 A3033 RMK A01 T00910063  RH  082%=      5-min Rain = 0
KJU1 082259Z 03002KT 09/06 A3033 RMK A01 T00910062  RH  082%=      5-min Rain = 0
KJU1 082300Z 03002KT 09/06 A3034 RMK A01 T00910064  RH  083%=      5-min Rain = 0
KJU1 082301Z 04002KT 09/07 A3034 RMK A01 T00910065  RH  083%=      5-min Rain = 0
KJU1 082302Z 03003KT 09/06 A3034 RMK A01 T00910064  RH  083%=      5-min Rain = 0
KJU1 082303Z 03002KT 09/06 A3034 RMK A01 T00910064  RH  083%=      5-min Rain = 0
KJU1 082304Z 04002KT 09/06 A3034 RMK A01 T00910064  RH  083%=      5-min Rain = 0
KJU1 082305Z 03002KT 09/06 A3034 RMK A01 T00910064  RH  083%=      5-min Rain = 0
KJU1 082306Z 01002KT 09/06 A3034 RMK A01 T00920064  RH  083%=      5-min Rain = 0
KJU1 082307Z 35002KT 09/07 A3034 RMK A01 T00910065  RH  084%=      5-min Rain = 0
KJU1 082308Z 35001KT 09/07 A3034 RMK A01 T00910065  RH  083%=      5-min Rain = 0
KJU1 082309Z 00002KT 09/07 A3034 RMK A01 T00910065  RH  084%=      5-min Rain = 0
KJU1 082310Z 01002KT 09/07 A3034 RMK A01 T00910065  RH  084%=      5-min Rain = 0
KJU1 082311Z 02002KT 09/07 A3034 RMK A01 T00910065  RH  083%=      5-min Rain = 0
KJU1 082312Z 02003KT 09/07 A3034 RMK A01 T00910065  RH  083%=      5-min Rain = 0
KJU1 082313Z 02002KT 09/06 A3034 RMK A01 T00910064  RH  083%=      5-min Rain = 0
KJU1 082314Z 01002KT 09/07 A3034 RMK A01 T00910065  RH  083%=      5-min Rain = 0
KJU1 082315Z 04002KT 09/07 A3034 RMK A01 T00910065  RH  084%=      5-min Rain = 0
KJU1 082316Z 02002KT 09/07 A3034 RMK A01 T00910065  RH  084%=      5-min Rain = 0
KJU1 082317Z 02003KT 09/07 A3034 RMK A01 T00910066  RH  084%=      5-min Rain = 0
KJU1 082318Z 02002KT 09/07 A3034 RMK A01 T00910065  RH  084%=      5-min Rain = 0
KJU1 082319Z 02003KT 09/06 A3034 RMK A01 T00910064  RH  084%=      5-min Rain = 0
KJU1 082320Z 03003KT 09/07 A3034 RMK A01 T00900065  RH  084%=      5-min Rain = 0
KJU1 082321Z 03004KT 09/07 A3034 RMK A01 T00900065  RH  084%=      5-min Rain = 0
KJU1 082322Z 02004KT 09/06 A3034 RMK A01 T00900064  RH  084%=      5-min Rain = 0
KJU1 082323Z 03003KT 09/06 A3034 RMK A01 T00900064  RH  084%=      5-min Rain = 0
KJU1 082324Z 03003KT 09/07 A3034 RMK A01 T00900065  RH  084%=      5-min Rain = 0
KJU1 082325Z 03003KT 09/07 A3033 RMK A01 T00900065  RH  084%=      5-min Rain = 0
KJU1 082326Z 04004KT 09/07 A3033 RMK A01 T00900065  RH  084%=      5-min Rain = 0
KJU1 082327Z 03004KT 09/06 A3033 RMK A01 T00900064  RH  084%=      5-min Rain = 0
KJU1 082328Z 04004KT 09/06 A3033 RMK A01 T00900064  RH  084%=      5-min Rain = 0
KJU1 082329Z 04003KT 09/06 A3033 RMK A01 T00890064  RH  084%=      5-min Rain = 0
KJU1 082330Z 04003KT 09/06 A3033 RMK A01 T00900064  RH  084%=      5-min Rain = 0
KJU1 082331Z 04002KT 09/06 A3033 RMK A01 T00890064  RH  084%=      5-min Rain = 0
KJU1 082332Z 03003KT 09/06 A3033 RMK A01 T00890064  RH  084%=      5-min Rain = 0
KJU1 082333Z 03002KT 09/06 A3033 RMK A01 T00900064  RH  084%=      5-min Rain = 0
KJU1 082334Z 03002KT 09/07 A3033 RMK A01 T00900066  RH  085%=      5-min Rain = 0
KJU1 082335Z 03002KT 09/07 A3033 RMK A01 T00900066  RH  085%=      5-min Rain = 0
KJU1 082336Z 03003KT 09/07 A3033 RMK A01 T00900066  RH  085%=      5-min Rain = 0
KJU1 082337Z 04003KT 09/07 A3033 RMK A01 T00900065  RH  084%=      5-min Rain = 0
KJU1 082338Z 04003KT 09/07 A3033 RMK A01 T00900065  RH  084%=      5-min Rain = 0
KJU1 082339Z 04003KT 09/07 A3033 RMK A01 T00890065  RH  085%=      5-min Rain = 0
KJU1 082340Z 04003KT 09/06 A3033 RMK A01 T00890064  RH  084%=      5-min Rain = 0
KJU1 082341Z 03003KT 09/07 A3034 RMK A01 T00890065  RH  085%=      5-min Rain = 0
KJU1 082342Z 04003KT 09/07 A3034 RMK A01 T00900065  RH  085%=      5-min Rain = 0
KJU1 082343Z 04002KT 09/06 A3034 RMK A01 T00890064  RH  084%=      5-min Rain = 0
KJU1 082344Z 04003KT 09/06 A3034 RMK A01 T00900064  RH  084%=      5-min Rain = 0
KJU1 082345Z 04002KT 09/07 A3034 RMK A01 T00900065  RH  084%=      5-min Rain = 0
KJU1 082346Z 05002KT 09/06 A3034 RMK A01 T00890064  RH  084%=      5-min Rain = 0
KJU1 082347Z 04001KT 09/06 A3034 RMK A01 T00890064  RH  084%=      5-min Rain = 0
KJU1 082348Z 06002KT 09/06 A3034 RMK A01 T00890064  RH  084%=      5-min Rain = 0
KJU1 082349Z 08002KT 09/06 A3034 RMK A01 T00890064  RH  084%=      5-min Rain = 0
KJU1 082350Z 08002KT 09/06 A3034 RMK A01 T00890064  RH  085%=      5-min Rain = 0
KJU1 082351Z 08002KT 09/07 A3034 RMK A01 T00890065  RH  085%=      5-min Rain = 0
KJU1 082352Z 08002KT 09/07 A3034 RMK A01 T00890065  RH  085%=      5-min Rain = 0
KJU1 082353Z 07002KT 09/07 A3034 RMK A01 T00890065  RH  085%=      5-min Rain = 0
KJU1 082354Z 06002KT 09/07 A3034 RMK A01 T00890066  RH  085%=      5-min Rain = 0
KJU1 082355Z 07002KT 09/07 A3034 RMK A01 T00890066  RH  085%=      5-min Rain = 0
KJU1 082356Z 06002KT 09/07 A3034 RMK A01 T00890066  RH  086%=      5-min Rain = 0
KJU1 082357Z 05003KT 09/07 A3034 RMK A01 T00880066  RH  086%=      5-min Rain = 0
KJU1 082358Z 06002KT 09/07 A3034 RMK A01 T00880066  RH  086%=      5-min Rain = 0
KJU1 082359Z 05002KT 09/07 A3034 RMK A01 T00880066  RH  086%=      5-min Rain = 0
KJU1 090000Z 05003KT 09/07 A3034 RMK A01 T00880067  RH  086%=      5-min Rain = 0
KJU1 090001Z 05004KT 09/07 A3034 RMK A01 T00880066  RH  086%=      5-min Rain = 0
KJU1 090002Z 04004KT 09/07 A3034 RMK A01 T00880066  RH  086%=      5-min Rain = 0
KJU1 090003Z 05004KT 09/07 A3034 RMK A01 T00880066  RH  086%=      5-min Rain = 0
KJU1 090004Z 06003KT 09/07 A3034 RMK A01 T00880066  RH  086%=      5-min Rain = 0
KJU1 090005Z 06003KT 09/07 A3034 RMK A01 T00880066  RH  086%=      5-min Rain = 0
KJU1 090006Z 06003KT 09/07 A3034 RMK A01 T00880065  RH  086%=      5-min Rain = 0
KJU1 090007Z 06004KT 09/07 A3034 RMK A01 T00870066  RH  086%=      5-min Rain = 0
KJU1 090008Z 05004KT 09/07 A3034 RMK A01 T00870065  RH  086%=      5-min Rain = 0
KJU1 090009Z 06003KT 09/06 A3034 RMK A01 T00870064  RH  085%=      5-min Rain = 0
KJU1 090010Z 06003KT 09/06 A3034 RMK A01 T00870064  RH  086%=      5-min Rain = 0
KJU1 090011Z 06003KT 09/07 A3034 RMK A01 T00870065  RH  086%=      5-min Rain = 0
KJU1 090012Z 07003KT 09/07 A3034 RMK A01 T00870065  RH  086%=      5-min Rain = 0
KJU1 090013Z 07003KT 09/07 A3034 RMK A01 T00870066  RH  086%=      5-min Rain = 0
KJU1 090014Z 06003KT 09/07 A3034 RMK A01 T00870065  RH  086%=      5-min Rain = 0
KJU1 090015Z 06003KT 09/07 A3034 RMK A01 T00870065  RH  086%=      5-min Rain = 0
KJU1 090016Z 06002KT 09/07 A3034 RMK A01 T00870065  RH  086%=      5-min Rain = 0
KJU1 090017Z 06003KT 09/07 A3034 RMK A01 T00860066  RH  087%=      5-min Rain = 0
KJU1 090018Z 06002KT 09/07 A3033 RMK A01 T00870066  RH  087%=      5-min Rain = 0
KJU1 090019Z 06002KT 09/07 A3033 RMK A01 T00870066  RH  087%=      5-min Rain = 0
KJU1 090020Z 07003KT 09/07 A3033 RMK A01 T00870066  RH  087%=      5-min Rain = 0
KJU1 090021Z 07003KT 09/07 A3034 RMK A01 T00870067  RH  087%=      5-min Rain = 0
KJU1 090022Z 06003KT 09/07 A3034 RMK A01 T00860067  RH  087%=      5-min Rain = 0
KJU1 090023Z 07002KT 09/07 A3034 RMK A01 T00860066  RH  087%=      5-min Rain = 0
KJU1 090024Z 10002KT 09/07 A3033 RMK A01 T00860067  RH  088%=      5-min Rain = 0
KJU1 090025Z 09002KT 09/07 A3033 RMK A01 T00860067  RH  088%=      5-min Rain = 0
KJU1 090026Z 08002KT 09/07 A3034 RMK A01 T00860066  RH  087%=      5-min Rain = 0
KJU1 090027Z 09002KT 09/07 A3034 RMK A01 T00860066  RH  087%=      5-min Rain = 0
KJU1 090028Z 08002KT 09/07 A3033 RMK A01 T00860066  RH  087%=      5-min Rain = 0
KJU1 090029Z 08002KT 09/07 A3033 RMK A01 T00850065  RH  087%=      5-min Rain = 0
KJU1 090030Z 09002KT 09/07 A3033 RMK A01 T00850065  RH  087%=      5-min Rain = 0
KJU1 090031Z 08002KT 09/07 A3033 RMK A01 T00850065  RH  087%=      5-min Rain = 0
KJU1 090032Z 07001KT 09/07 A3033 RMK A01 T00850066  RH  087%=      5-min Rain = 0
KJU1 090033Z 06001KT 09/07 A3034 RMK A01 T00850066  RH  088%=      5-min Rain = 0
KJU1 090034Z 07001KT 09/07 A3033 RMK A01 T00850067  RH  088%=      5-min Rain = 0
KJU1 090035Z 08001KT 09/07 A3033 RMK A01 T00850067  RH  088%=      5-min Rain = 0
KJU1 090036Z 11001KT 09/07 A3034 RMK A01 T00850067  RH  088%=      5-min Rain = 0
KJU1 090037Z 11001KT 09/07 A3034 RMK A01 T00850067  RH  089%=      5-min Rain = 0
KJU1 090038Z 10001KT 09/07 A3034 RMK A01 T00850067  RH  089%=      5-min Rain = 0
KJU1 090039Z 10000KT 08/07 A3034 RMK A01 T00840067  RH  089%=      5-min Rain = 0
KJU1 090040Z 09001KT 08/07 A3034 RMK A01 T00840067  RH  089%=      5-min Rain = 0
KJU1 090041Z 09001KT 08/07 A3034 RMK A01 T00840067  RH  089%=      5-min Rain = 0
KJU1 090042Z 09001KT 08/07 A3034 RMK A01 T00840067  RH  089%=      5-min Rain = 0
KJU1 090043Z 09001KT 08/07 A3034 RMK A01 T00840067  RH  089%=      5-min Rain = 0
KJU1 090044Z 08002KT 08/07 A3034 RMK A01 T00830067  RH  090%=      5-min Rain = 0
KJU1 090045Z 06002KT 08/07 A3034 RMK A01 T00830067  RH  090%=      5-min Rain = 0
KJU1 090046Z 04002KT 08/07 A3034 RMK A01 T00830068  RH  090%=      5-min Rain = 0
KJU1 090047Z 04002KT 08/07 A3034 RMK A01 T00830068  RH  090%=      5-min Rain = 0
KJU1 090048Z 04002KT 08/07 A3034 RMK A01 T00830068  RH  090%=      5-min Rain = 0
KJU1 090049Z 04002KT 08/07 A3034 RMK A01 T00830068  RH  090%=      5-min Rain = 0
KJU1 090050Z 03002KT 08/07 A3034 RMK A01 T00830068  RH  090%=      5-min Rain = 0
KJU1 090051Z 04002KT 08/07 A3034 RMK A01 T00830068  RH  091%=      5-min Rain = 0
KJU1 090052Z 04002KT 08/07 A3034 RMK A01 T00820068  RH  091%=      5-min Rain = 0
KJU1 090053Z 04002KT 08/07 A3034 RMK A01 T00820069  RH  091%=      5-min Rain = 0
KJU1 090054Z 03002KT 08/07 A3034 RMK A01 T00820068  RH  091%=      5-min Rain = 0
KJU1 090055Z 04002KT 08/07 A3034 RMK A01 T00820069  RH  091%=      5-min Rain = 0
KJU1 090056Z 04002KT 08/07 A3034 RMK A01 T00820068  RH  091%=      5-min Rain = 0
KJU1 090057Z 05001KT 08/07 A3034 RMK A01 T00820068  RH  091%=      5-min Rain = 0
KJU1 090058Z 06001KT 08/07 A3034 RMK A01 T00820069  RH  091%=      5-min Rain = 0
KJU1 090059Z 07001KT 08/07 A3034 RMK A01 T00810068  RH  091%=      5-min Rain = 0
KJU1 090100Z 06002KT 08/07 A3034 RMK A01 T00810068  RH  091%=      5-min Rain = 0
KJU1 090101Z 06002KT 08/07 A3034 RMK A01 T00810068  RH  091%=      5-min Rain = 0
KJU1 090102Z 06002KT 08/07 A3034 RMK A01 T00810068  RH  092%=      5-min Rain = 0
KJU1 090103Z 07002KT 08/07 A3034 RMK A01 T00810068  RH  092%=      5-min Rain = 0
KJU1 090104Z 08002KT 08/07 A3034 RMK A01 T00810068  RH  092%=      5-min Rain = 0
KJU1 090105Z 08002KT 08/07 A3034 RMK A01 T00800067  RH  091%=      5-min Rain = 0
KJU1 090106Z 08002KT 08/07 A3034 RMK A01 T00800067  RH  091%=      5-min Rain = 0
KJU1 090107Z 07002KT 08/07 A3034 RMK A01 T00800067  RH  091%=      5-min Rain = 0
KJU1 090108Z 08002KT 08/07 A3034 RMK A01 T00800067  RH  091%=      5-min Rain = 0
KJU1 090109Z 08002KT 08/07 A3034 RMK A01 T00800067  RH  091%=      5-min Rain = 0
KJU1 090110Z 08001KT 08/07 A3034 RMK A01 T00800066  RH  091%=      5-min Rain = 0
KJU1 090111Z 08001KT 08/07 A3034 RMK A01 T00800067  RH  091%=      5-min Rain = 0
KJU1 090112Z 06001KT 08/07 A3034 RMK A01 T00800067  RH  091%=      5-min Rain = 0
KJU1 090113Z 02002KT 08/07 A3034 RMK A01 T00800067  RH  091%=      5-min Rain = 0
KJU1 090114Z 02002KT 08/07 A3034 RMK A01 T00800067  RH  092%=      5-min Rain = 0
KJU1 090115Z 36002KT 08/07 A3034 RMK A01 T00800067  RH  091%=      5-min Rain = 0
KJU1 090116Z 36001KT 08/07 A3034 RMK A01 T00800067  RH  091%=      5-min Rain = 0
KJU1 090117Z 01001KT 08/07 A3034 RMK A01 T00800067  RH  092%=      5-min Rain = 0
KJU1 090118Z 02001KT 08/07 A3034 RMK A01 T00800067  RH  092%=      5-min Rain = 0
KJU1 090119Z 02001KT 08/07 A3034 RMK A01 T00800067  RH  092%=      5-min Rain = 0
KJU1 090120Z 02001KT 08/07 A3034 RMK A01 T00800067  RH  091%=      5-min Rain = 0
KJU1 090121Z 02001KT 08/07 A3035 RMK A01 T00800067  RH  091%=      5-min Rain = 0
KJU1 090122Z 01001KT 08/07 A3035 RMK A01 T00800067  RH  091%=      5-min Rain = 0
KJU1 090123Z 01001KT 08/07 A3035 RMK A01 T00800067  RH  091%=      5-min Rain = 0
KJU1 090124Z 02001KT 08/07 A3035 RMK A01 T00800067  RH  092%=      5-min Rain = 0
KJU1 090125Z 02001KT 08/07 A3034 RMK A01 T00800067  RH  092%=      5-min Rain = 0
KJU1 090126Z 04001KT 08/07 A3034 RMK A01 T00800068  RH  092%=      5-min Rain = 0
KJU1 090127Z 05001KT 08/07 A3034 RMK A01 T00800067  RH  092%=      5-min Rain = 0
KJU1 090128Z 05000KT 08/07 A3034 RMK A01 T00800067  RH  092%=      5-min Rain = 0
KJU1 090129Z 00000KT 08/07 A3034 RMK A01 T00800067  RH  092%=      5-min Rain = 0
KJU1 090130Z 00000KT 08/07 A3034 RMK A01 T00800068  RH  092%=      5-min Rain = 0
KJU1 090131Z 08000KT 08/07 A3034 RMK A01 T00800068  RH  092%=      5-min Rain = 0
KJU1 090132Z 00000KT 08/07 A3034 RMK A01 T00800068  RH  092%=      5-min Rain = 0
KJU1 090133Z 00000KT 08/07 A3034 RMK A01 T00800068  RH  092%=      5-min Rain = 0
KJU1 090134Z 00000KT 08/07 A3034 RMK A01 T00790067  RH  092%=      5-min Rain = 0
KJU1 090135Z 04000KT 08/07 A3034 RMK A01 T00790067  RH  092%=      5-min Rain = 0
KJU1 090136Z 04001KT 08/07 A3034 RMK A01 T00790067  RH  092%=      5-min Rain = 0
KJU1 090137Z 03001KT 08/07 A3035 RMK A01 T00790068  RH  092%=      5-min Rain = 0
KJU1 090138Z 03001KT 08/07 A3035 RMK A01 T00790068  RH  092%=      5-min Rain = 0
KJU1 090139Z 02001KT 08/07 A3035 RMK A01 T00790068  RH  093%=      5-min Rain = 0
KJU1 090140Z 02001KT 08/07 A3035 RMK A01 T00790068  RH  093%=      5-min Rain = 0
KJU1 090141Z 00000KT 08/07 A3035 RMK A01 T00790068  RH  092%=      5-min Rain = 0
KJU1 090142Z 35000KT 08/07 A3035 RMK A01 T00790067  RH  092%=      5-min Rain = 0
KJU1 090143Z 34000KT 08/07 A3035 RMK A01 T00790067  RH  092%=      5-min Rain = 0
KJU1 090144Z 36001KT 08/07 A3035 RMK A01 T00790067  RH  092%=      5-min Rain = 0
KJU1 090145Z 00002KT 08/07 A3035 RMK A01 T00790067  RH  093%=      5-min Rain = 0
KJU1 090146Z 01002KT 08/07 A3035 RMK A01 T00790068  RH  093%=      5-min Rain = 0
KJU1 090147Z 01002KT 08/07 A3035 RMK A01 T00790067  RH  092%=      5-min Rain = 0
KJU1 090148Z 01002KT 08/07 A3035 RMK A01 T00790067  RH  092%=      5-min Rain = 0
KJU1 090149Z 01002KT 08/07 A3035 RMK A01 T00790067  RH  092%=      5-min Rain = 0
KJU1 090150Z 02002KT 08/07 A3035 RMK A01 T00790067  RH  092%=      5-min Rain = 0
KJU1 090151Z 02002KT 08/07 A3035 RMK A01 T00790067  RH  092%=      5-min Rain = 0
KJU1 090152Z 02002KT 08/07 A3035 RMK A01 T00790067  RH  092%=      5-min Rain = 0
KJU1 090153Z 03002KT 08/07 A3035 RMK A01 T00790067  RH  092%=      5-min Rain = 0
KJU1 090154Z 03002KT 08/07 A3035 RMK A01 T00790067  RH  092%=      5-min Rain = 0
KJU1 090155Z 03002KT 08/07 A3035 RMK A01 T00790067  RH  092%=      5-min Rain = 0
KJU1 090156Z 04002KT 08/07 A3035 RMK A01 T00790067  RH  092%=      5-min Rain = 0
KJU1 090157Z 05001KT 08/07 A3035 RMK A01 T00790067  RH  092%=      5-min Rain = 0
KJU1 090158Z 07001KT 08/07 A3035 RMK A01 T00790067  RH  092%=      5-min Rain = 0
KJU1 090159Z 08000KT 08/07 A3035 RMK A01 T00790068  RH  093%=      5-min Rain = 0
KJU1 090200Z 08000KT 08/07 A3035 RMK A01 T00790068  RH  093%=      5-min Rain = 0
KJU1 090201Z 00000KT 08/07 A3035 RMK A01 T00790068  RH  093%=      5-min Rain = 0
KJU1 090202Z 00000KT 08/07 A3035 RMK A01 T00790068  RH  093%=      5-min Rain = 0
KJU1 090203Z 00000KT 08/07 A3035 RMK A01 T00780068  RH  093%=      5-min Rain = 0
KJU1 090204Z 00000KT 08/07 A3035 RMK A01 T00780068  RH  093%=      5-min Rain = 0
KJU1 090205Z 00000KT 08/07 A3035 RMK A01 T00780068  RH  093%=      5-min Rain = 0
KJU1 090206Z 00000KT 08/07 A3035 RMK A01 T00780068  RH  093%=      5-min Rain = 0
KJU1 090207Z 00000KT 08/07 A3035 RMK A01 T00780068  RH  094%=      5-min Rain = 0
KJU1 090208Z 00000KT 08/07 A3035 RMK A01 T00780068  RH  094%=      5-min Rain = 0
KJU1 090209Z 00000KT 08/07 A3035 RMK A01 T00780069  RH  094%=      5-min Rain = 0
KJU1 090210Z 00000KT 08/07 A3035 RMK A01 T00780069  RH  094%=      5-min Rain = 0
KJU1 090211Z 12001KT 08/07 A3035 RMK A01 T00780069  RH  094%=      5-min Rain = 0
KJU1 090212Z 12001KT 08/07 A3035 RMK A01 T00770068  RH  094%=      5-min Rain = 0
KJU1 090213Z 12002KT 08/07 A3035 RMK A01 T00770068  RH  094%=      5-min Rain = 0
KJU1 090214Z 13002KT 08/07 A3035 RMK A01 T00760067  RH  094%=      5-min Rain = 0
KJU1 090215Z 13002KT 08/07 A3035 RMK A01 T00760067  RH  094%=      5-min Rain = 0
KJU1 090216Z 13002KT 08/07 A3035 RMK A01 T00760067  RH  094%=      5-min Rain = 0
KJU1 090217Z 14002KT 08/07 A3035 RMK A01 T00760067  RH  094%=      5-min Rain = 0
KJU1 090218Z 14001KT 08/07 A3035 RMK A01 T00760068  RH  095%=      5-min Rain = 0
KJU1 090219Z 14001KT 08/07 A3035 RMK A01 T00750067  RH  095%=      5-min Rain = 0
KJU1 090220Z 14001KT 08/07 A3035 RMK A01 T00750067  RH  095%=      5-min Rain = 0
KJU1 090221Z 16000KT 08/07 A3035 RMK A01 T00750067  RH  095%=      5-min Rain = 0
KJU1 090222Z 21001KT 08/07 A3035 RMK A01 T00750067  RH  095%=      5-min Rain = 0
KJU1 090223Z 21001KT 07/07 A3035 RMK A01 T00740066  RH  095%=      5-min Rain = 0
KJU1 090224Z 24001KT 07/07 A3035 RMK A01 T00740066  RH  095%=      5-min Rain = 0
KJU1 090225Z 23001KT 07/07 A3035 RMK A01 T00740066  RH  095%=      5-min Rain = 0
KJU1 090226Z 22001KT 07/07 A3035 RMK A01 T00740067  RH  095%=      5-min Rain = 0
KJU1 090227Z 21001KT 07/07 A3035 RMK A01 T00740067  RH  095%=      5-min Rain = 0
KJU1 090228Z 19001KT 07/07 A3035 RMK A01 T00740067  RH  095%=      5-min Rain = 0
KJU1 090229Z 18001KT 07/07 A3035 RMK A01 T00740067  RH  095%=      5-min Rain = 0
KJU1 090230Z 17001KT 07/07 A3035 RMK A01 T00740067  RH  095%=      5-min Rain = 0
KJU1 090231Z 17001KT 07/07 A3035 RMK A01 T00740067  RH  096%=      5-min Rain = 0
KJU1 090232Z 17000KT 07/07 A3035 RMK A01 T00740067  RH  096%=      5-min Rain = 0
KJU1 090233Z 00000KT 07/07 A3035 RMK A01 T00740067  RH  096%=      5-min Rain = 0
KJU1 090234Z 00000KT 07/07 A3035 RMK A01 T00740067  RH  096%=      5-min Rain = 0
KJU1 090235Z 00000KT 07/07 A3035 RMK A01 T00730067  RH  096%=      5-min Rain = 0
KJU1 090236Z 00000KT 07/07 A3035 RMK A01 T00730067  RH  096%=      5-min Rain = 0
KJU1 090237Z 00000KT 07/07 A3035 RMK A01 T00730067  RH  096%=      5-min Rain = 0
KJU1 090238Z 00000KT 07/07 A3035 RMK A01 T00730067  RH  096%=      5-min Rain = 0
KJU1 090239Z 00000KT 07/07 A3035 RMK A01 T00730067  RH  096%=      5-min Rain = 0
KJU1 090240Z 00000KT 07/07 A3035 RMK A01 T00730067  RH  096%=      5-min Rain = 0
KJU1 090241Z 19000KT 07/07 A3035 RMK A01 T00730067  RH  096%=      5-min Rain = 0
KJU1 090242Z 19001KT 07/07 A3035 RMK A01 T00730068  RH  096%=      5-min Rain = 0
KJU1 090243Z 19000KT 07/07 A3035 RMK A01 T00730067  RH  096%=      5-min Rain = 0
KJU1 090244Z 00000KT 07/07 A3035 RMK A01 T00730067  RH  096%=      5-min Rain = 0
KJU1 090245Z 00000KT 07/07 A3035 RMK A01 T00730067  RH  096%=      5-min Rain = 0
KJU1 090246Z 00000KT 07/07 A3035 RMK A01 T00720067  RH  096%=      5-min Rain = 0
KJU1 090247Z 00000KT 07/07 A3035 RMK A01 T00720067  RH  096%=      5-min Rain = 0
KJU1 090248Z 00000KT 07/07 A3035 RMK A01 T00720067  RH  096%=      5-min Rain = 0
KJU1 090249Z 00000KT 07/07 A3035 RMK A01 T00720067  RH  097%=      5-min Rain = 0
KJU1 090250Z 00000KT 07/07 A3035 RMK A01 T00720067  RH  097%=      5-min Rain = 0
KJU1 090251Z 00000KT 07/07 A3035 RMK A01 T00720067  RH  097%=      5-min Rain = 0
KJU1 090252Z 00000KT 07/07 A3035 RMK A01 T00720067  RH  097%=      5-min Rain = 0
KJU1 090253Z 00000KT 07/07 A3035 RMK A01 T00730068  RH  097%=      5-min Rain = 0
KJU1 090254Z 00000KT 07/07 A3035 RMK A01 T00730068  RH  097%=      5-min Rain = 0
KJU1 090255Z 00000KT 07/07 A3035 RMK A01 T00720067  RH  097%=      5-min Rain = 0
KJU1 090256Z 00000KT 07/07 A3035 RMK A01 T00720067  RH  097%=      5-min Rain = 0
KJU1 090257Z 00000KT 07/07 A3035 RMK A01 T00720067  RH  097%=      5-min Rain = 0
KJU1 090258Z 00000KT 07/07 A3035 RMK A01 T00720067  RH  097%=      5-min Rain = 0
KJU1 090259Z 00000KT 07/07 A3035 RMK A01 T00710067  RH  097%=      5-min Rain = 0
KJU1 090300Z 00000KT 07/07 A3035 RMK A01 T00710066  RH  097%=      5-min Rain = 0
KJU1 090301Z 00000KT 07/07 A3035 RMK A01 T00710066  RH  097%=      5-min Rain = 0
KJU1 090302Z 00000KT 07/07 A3035 RMK A01 T00700066  RH  097%=      5-min Rain = 0
KJU1 090303Z 00000KT 07/07 A3035 RMK A01 T00700065  RH  097%=      5-min Rain = 0
KJU1 090304Z 00000KT 07/07 A3035 RMK A01 T00700065  RH  097%=      5-min Rain = 0
KJU1 090305Z 00000KT 07/07 A3035 RMK A01 T00700065  RH  097%=      5-min Rain = 0
KJU1 090306Z 00000KT 07/07 A3035 RMK A01 T00700065  RH  097%=      5-min Rain = 0
KJU1 090307Z 00000KT 07/07 A3035 RMK A01 T00700066  RH  097%=      5-min Rain = 0
KJU1 090308Z 00000KT 07/07 A3035 RMK A01 T00700066  RH  097%=      5-min Rain = 0
KJU1 090309Z 00000KT 07/07 A3035 RMK A01 T00700066  RH  097%=      5-min Rain = 0
KJU1 090310Z 00000KT 07/07 A3035 RMK A01 T00700066  RH  097%=      5-min Rain = 0
KJU1 090311Z 00000KT 07/07 A3035 RMK A01 T00700066  RH  097%=      5-min Rain = 0
KJU1 090312Z 00000KT 07/07 A3035 RMK A01 T00700066  RH  097%=      5-min Rain = 0
KJU1 090313Z 00000KT 07/07 A3035 RMK A01 T00690065  RH  097%=      5-min Rain = 0
KJU1 090314Z 00000KT 07/06 A3035 RMK A01 T00680064  RH  097%=      5-min Rain = 0
KJU1 090315Z 00000KT 07/07 A3035 RMK A01 T00680065  RH  097%=      5-min Rain = 0
KJU1 090316Z 00000KT 07/06 A3035 RMK A01 T00680064  RH  097%=      5-min Rain = 0
KJU1 090317Z 18000KT 07/06 A3035 RMK A01 T00680064  RH  097%=      5-min Rain = 0
KJU1 090318Z 17001KT 07/06 A3035 RMK A01 T00680064  RH  097%=      5-min Rain = 0
KJU1 090319Z 15001KT 07/06 A3035 RMK A01 T00680064  RH  098%=      5-min Rain = 0
KJU1 090320Z 15001KT 07/06 A3035 RMK A01 T00670064  RH  097%=      5-min Rain = 0
KJU1 090321Z 14001KT 07/06 A3035 RMK A01 T00670063  RH  098%=      5-min Rain = 0
KJU1 090322Z 14001KT 07/06 A3035 RMK A01 T00660063  RH  098%=      5-min Rain = 0
KJU1 090323Z 14001KT 07/06 A3035 RMK A01 T00660063  RH  098%=      5-min Rain = 0
KJU1 090324Z 14001KT 07/06 A3035 RMK A01 T00660063  RH  098%=      5-min Rain = 0
KJU1 090325Z 14000KT 07/06 A3036 RMK A01 T00670063  RH  098%=      5-min Rain = 0
KJU1 090326Z 00000KT 07/06 A3036 RMK A01 T00660063  RH  098%=      5-min Rain = 0
KJU1 090327Z 00000KT 07/06 A3036 RMK A01 T00660063  RH  098%=      5-min Rain = 0
KJU1 090328Z 00000KT 07/06 A3036 RMK A01 T00660063  RH  098%=      5-min Rain = 0
KJU1 090329Z 17000KT 07/06 A3036 RMK A01 T00660063  RH  098%=      5-min Rain = 0
KJU1 090330Z 18001KT 07/06 A3036 RMK A01 T00660063  RH  098%=      5-min Rain = 0
KJU1 090331Z 18000KT 07/06 A3036 RMK A01 T00660063  RH  098%=      5-min Rain = 0
KJU1 090332Z 00000KT 07/06 A3036 RMK A01 T00660063  RH  098%=      5-min Rain = 0
KJU1 090333Z 00000KT 07/06 A3036 RMK A01 T00650062  RH  098%=      5-min Rain = 0
KJU1 090334Z 22001KT 07/06 A3036 RMK A01 T00650062  RH  098%=      5-min Rain = 0
KJU1 090335Z 22001KT 07/06 A3036 RMK A01 T00650062  RH  098%=      5-min Rain = 0
KJU1 090336Z 20001KT 07/06 A3036 RMK A01 T00650062  RH  098%=      5-min Rain = 0
KJU1 090337Z 20001KT 07/06 A3036 RMK A01 T00650061  RH  098%=      5-min Rain = 0
KJU1 090338Z 21001KT 07/06 A3036 RMK A01 T00650062  RH  098%=      5-min Rain = 0
KJU1 090339Z 23001KT 07/06 A3036 RMK A01 T00650062  RH  098%=      5-min Rain = 0
KJU1 090340Z 21001KT 07/06 A3036 RMK A01 T00650062  RH  098%=      5-min Rain = 0
KJU1 090341Z 20001KT 07/06 A3036 RMK A01 T00650062  RH  098%=      5-min Rain = 0
KJU1 090342Z 19001KT 06/06 A3036 RMK A01 T00640061  RH  098%=      5-min Rain = 0
KJU1 090343Z 19001KT 06/06 A3036 RMK A01 T00640061  RH  098%=      5-min Rain = 0
KJU1 090344Z 19000KT 06/06 A3036 RMK A01 T00640061  RH  098%=      5-min Rain = 0
KJU1 090345Z 19001KT 06/06 A3036 RMK A01 T00640061  RH  098%=      5-min Rain = 0
KJU1 090346Z 18001KT 06/06 A3036 RMK A01 T00630061  RH  098%=      5-min Rain = 0
KJU1 090347Z 18001KT 06/06 A3036 RMK A01 T00630061  RH  098%=      5-min Rain = 0
KJU1 090348Z 18002KT 06/06 A3036 RMK A01 T00630061  RH  098%=      5-min Rain = 0
KJU1 090349Z 18002KT 06/06 A3036 RMK A01 T00630060  RH  098%=      5-min Rain = 0
KJU1 090350Z 18002KT 06/06 A3036 RMK A01 T00630060  RH  098%=      5-min Rain = 0
KJU1 090351Z 18003KT 06/06 A3036 RMK A01 T00630060  RH  098%=      5-min Rain = 0
KJU1 090352Z 18003KT 06/06 A3036 RMK A01 T00630060  RH  098%=      5-min Rain = 0
KJU1 090353Z 18002KT 06/06 A3036 RMK A01 T00620060  RH  098%=      5-min Rain = 0
KJU1 090354Z 18002KT 06/06 A3036 RMK A01 T00620060  RH  098%=      5-min Rain = 0
KJU1 090355Z 18001KT 06/06 A3036 RMK A01 T00620060  RH  098%=      5-min Rain = 0
KJU1 090356Z 18001KT 06/06 A3036 RMK A01 T00620060  RH  098%=      5-min Rain = 0
KJU1 090357Z 18001KT 06/06 A3036 RMK A01 T00630060  RH  098%=      5-min Rain = 0
KJU1 090358Z 18001KT 06/06 A3036 RMK A01 T00620060  RH  098%=      5-min Rain = 0
KJU1 090359Z 18001KT 06/06 A3036 RMK A01 T00620060  RH  098%=      5-min Rain = 0
KJU1 090400Z 18000KT 06/06 A3036 RMK A01 T00620059  RH  098%=      5-min Rain = 0
KJU1 090401Z 00000KT 06/06 A3036 RMK A01 T00620059  RH  098%=      5-min Rain = 0
KJU1 090402Z 00000KT 06/06 A3036 RMK A01 T00620059  RH  098%=      5-min Rain = 0
KJU1 090403Z 00000KT 06/06 A3036 RMK A01 T00610059  RH  098%=      5-min Rain = 0
KJU1 090404Z 17001KT 06/06 A3036 RMK A01 T00610059  RH  099%=      5-min Rain = 0
KJU1 090405Z 17001KT 06/06 A3036 RMK A01 T00620060  RH  099%=      5-min Rain = 0
KJU1 090406Z 17002KT 06/06 A3036 RMK A01 T00620060  RH  099%=      5-min Rain = 0
KJU1 090407Z 18002KT 06/06 A3036 RMK A01 T00620059  RH  098%=      5-min Rain = 0
KJU1 090408Z 18002KT 06/06 A3036 RMK A01 T00610058  RH  098%=      5-min Rain = 0
KJU1 090409Z 18002KT 06/06 A3036 RMK A01 T00600058  RH  098%=      5-min Rain = 0
KJU1 090410Z 18002KT 06/06 A3036 RMK A01 T00600058  RH  099%=      5-min Rain = 0
KJU1 090411Z 18002KT 06/06 A3036 RMK A01 T00610059  RH  099%=      5-min Rain = 0
KJU1 090412Z 18002KT 06/06 A3036 RMK A01 T00600058  RH  099%=      5-min Rain = 0
KJU1 090413Z 18002KT 06/06 A3036 RMK A01 T00600058  RH  099%=      5-min Rain = 0
KJU1 090414Z 19002KT 06/06 A3036 RMK A01 T00590057  RH  099%=      5-min Rain = 0
KJU1 090415Z 19002KT 06/06 A3036 RMK A01 T00590057  RH  099%=      5-min Rain = 0
KJU1 090416Z 19002KT 06/06 A3036 RMK A01 T00590057  RH  099%=      5-min Rain = 0
KJU1 090417Z 19002KT 06/06 A3036 RMK A01 T00600058  RH  099%=      5-min Rain = 0
KJU1 090418Z 19002KT 06/06 A3036 RMK A01 T00590058  RH  099%=      5-min Rain = 0
KJU1 090419Z 19002KT 06/06 A3036 RMK A01 T00600058  RH  099%=      5-min Rain = 0
KJU1 090420Z 19002KT 06/06 A3036 RMK A01 T00590057  RH  099%=      5-min Rain = 0
KJU1 090421Z 20002KT 06/06 A3036 RMK A01 T00580056  RH  099%=      5-min Rain = 0
KJU1 090422Z 20002KT 06/06 A3035 RMK A01 T00570055  RH  099%=      5-min Rain = 0
KJU1 090423Z 20001KT 06/06 A3036 RMK A01 T00570055  RH  099%=      5-min Rain = 0
KJU1 090424Z 21001KT 06/05 A3036 RMK A01 T00560054  RH  099%=      5-min Rain = 0
KJU1 090425Z 22001KT 06/05 A3036 RMK A01 T00560054  RH  099%=      5-min Rain = 0
KJU1 090426Z 23001KT 06/05 A3036 RMK A01 T00560054  RH  099%=      5-min Rain = 0
KJU1 090427Z 24002KT 06/05 A3036 RMK A01 T00560054  RH  099%=      5-min Rain = 0
KJU1 090428Z 24002KT 06/05 A3036 RMK A01 T00560054  RH  099%=      5-min Rain = 0
KJU1 090429Z 24002KT 06/05 A3036 RMK A01 T00560054  RH  099%=      5-min Rain = 0
KJU1 090430Z 23001KT 06/05 A3036 RMK A01 T00560054  RH  099%=      5-min Rain = 0
KJU1 090431Z 23002KT 06/05 A3036 RMK A01 T00560054  RH  099%=      5-min Rain = 0
KJU1 090432Z 23002KT 06/05 A3036 RMK A01 T00560054  RH  099%=      5-min Rain = 0
KJU1 090433Z 22002KT 06/05 A3036 RMK A01 T00560054  RH  099%=      5-min Rain = 0
KJU1 090434Z 21003KT 06/05 A3036 RMK A01 T00550054  RH  099%=      5-min Rain = 0
KJU1 090435Z 21003KT 06/05 A3036 RMK A01 T00550053  RH  099%=      5-min Rain = 0
KJU1 090436Z 21003KT 06/05 A3036 RMK A01 T00550053  RH  099%=      5-min Rain = 0
KJU1 090437Z 21003KT 06/05 A3036 RMK A01 T00550053  RH  099%=      5-min Rain = 0
KJU1 090438Z 20002KT 06/05 A3036 RMK A01 T00550054  RH  099%=      5-min Rain = 0
KJU1 090439Z 20002KT 06/05 A3036 RMK A01 T00550054  RH  099%=      5-min Rain = 0
KJU1 090440Z 20002KT 06/05 A3036 RMK A01 T00560054  RH  099%=      5-min Rain = 0
KJU1 090441Z 19003KT 06/05 A3035 RMK A01 T00560054  RH  099%=      5-min Rain = 0
KJU1 090442Z 18002KT 06/05 A3035 RMK A01 T00550054  RH  099%=      5-min Rain = 0
KJU1 090443Z 18003KT 06/05 A3035 RMK A01 T00550054  RH  099%=      5-min Rain = 0
KJU1 090444Z 18002KT 06/05 A3035 RMK A01 T00560054  RH  099%=      5-min Rain = 0
KJU1 090445Z 18002KT 06/05 A3035 RMK A01 T00550054  RH  099%=      5-min Rain = 0
KJU1 090446Z 18003KT 06/05 A3035 RMK A01 T00550054  RH  099%=      5-min Rain = 0
KJU1 090447Z 18003KT 06/05 A3035 RMK A01 T00550053  RH  099%=      5-min Rain = 0
KJU1 090448Z 18003KT 05/05 A3035 RMK A01 T00540053  RH  099%=      5-min Rain = 0
KJU1 090449Z 18003KT 05/05 A3035 RMK A01 T00530052  RH  099%=      5-min Rain = 0
KJU1 090450Z 18003KT 05/05 A3035 RMK A01 T00530051  RH  099%=      5-min Rain = 0
KJU1 090451Z 18003KT 05/05 A3035 RMK A01 T00530052  RH  099%=      5-min Rain = 0
KJU1 090452Z 18002KT 05/05 A3035 RMK A01 T00540053  RH  099%=      5-min Rain = 0
KJU1 090453Z 18002KT 06/05 A3035 RMK A01 T00550054  RH  099%=      5-min Rain = 0
KJU1 090454Z 18002KT 06/05 A3035 RMK A01 T00550054  RH  099%=      5-min Rain = 0
KJU1 090455Z 19002KT 06/06 A3035 RMK A01 T00560055  RH  099%=      5-min Rain = 0
KJU1 090456Z 19002KT 06/06 A3035 RMK A01 T00560055  RH  099%=      5-min Rain = 0
KJU1 090457Z 19002KT 06/06 A3035 RMK A01 T00560055  RH  099%=      5-min Rain = 0
KJU1 090458Z 20002KT 06/06 A3035 RMK A01 T00560055  RH  099%=      5-min Rain = 0
KJU1 090459Z 20002KT 06/06 A3035 RMK A01 T00570056  RH  099%=      5-min Rain = 0
KJU1 090500Z 21002KT 06/06 A3035 RMK A01 T00570056  RH  099%=      5-min Rain = 0
KJU1 090501Z 21002KT 06/06 A3035 RMK A01 T00570057  RH  099%=      5-min Rain = 0
KJU1 090502Z 22002KT 06/06 A3035 RMK A01 T00580057  RH  099%=      5-min Rain = 0
KJU1 090503Z 22002KT 06/06 A3035 RMK A01 T00580058  RH  100%=      5-min Rain = 0
KJU1 090504Z 22002KT 06/06 A3035 RMK A01 T00580058  RH  099%=      5-min Rain = 0
KJU1 090505Z 22002KT 06/06 A3035 RMK A01 T00580058  RH  099%=      5-min Rain = 0
KJU1 090506Z 22002KT 06/06 A3035 RMK A01 T00580057  RH  099%=      5-min Rain = 0
KJU1 090507Z 23002KT 06/06 A3035 RMK A01 T00580057  RH  099%=      5-min Rain = 0
KJU1 090508Z 23001KT 06/06 A3035 RMK A01 T00570056  RH  099%=      5-min Rain = 0
KJU1 090509Z 23001KT 06/05 A3035 RMK A01 T00560054  RH  099%=      5-min Rain = 0
KJU1 090510Z 22000KT 05/05 A3035 RMK A01 T00540053  RH  099%=      5-min Rain = 0
KJU1 090511Z 22000KT 05/05 A3035 RMK A01 T00540053  RH  099%=      5-min Rain = 0
KJU1 090512Z 22000KT 05/05 A3035 RMK A01 T00540053  RH  099%=      5-min Rain = 0
KJU1 090513Z 00000KT 06/05 A3035 RMK A01 T00550054  RH  099%=      5-min Rain = 0
KJU1 090514Z 00000KT 06/05 A3035 RMK A01 T00550054  RH  099%=      5-min Rain = 0
KJU1 090515Z 00000KT 05/05 A3035 RMK A01 T00540053  RH  099%=      5-min Rain = 0
KJU1 090516Z 00000KT 05/05 A3035 RMK A01 T00530052  RH  099%=      5-min Rain = 0
KJU1 090517Z 00000KT 05/05 A3035 RMK A01 T00520051  RH  099%=      5-min Rain = 0
KJU1 090518Z 00000KT 05/05 A3035 RMK A01 T00510049  RH  099%=      5-min Rain = 0
KJU1 090519Z 00000KT 05/05 A3035 RMK A01 T00490048  RH  099%=      5-min Rain = 0
KJU1 090520Z 00000KT 05/05 A3035 RMK A01 T00490047  RH  099%=      5-min Rain = 0
KJU1 090521Z 00000KT 05/05 A3035 RMK A01 T00480047  RH  099%=      5-min Rain = 0
KJU1 090522Z 00000KT 05/05 A3035 RMK A01 T00480047  RH  099%=      5-min Rain = 0
KJU1 090523Z 00000KT 05/05 A3035 RMK A01 T00480047  RH  099%=      5-min Rain = 0
KJU1 090524Z 00000KT 05/05 A3034 RMK A01 T00480047  RH  099%=      5-min Rain = 0
KJU1 090525Z 00000KT 05/05 A3034 RMK A01 T00470046  RH  099%=      5-min Rain = 0
KJU1 090526Z 00000KT 05/05 A3034 RMK A01 T00470046  RH  099%=      5-min Rain = 0
KJU1 090527Z 00000KT 05/05 A3034 RMK A01 T00470045  RH  099%=      5-min Rain = 0
KJU1 090528Z 00000KT 05/05 A3034 RMK A01 T00470045  RH  099%=      5-min Rain = 0
KJU1 090529Z 00000KT 05/05 A3034 RMK A01 T00470046  RH  099%=      5-min Rain = 0
KJU1 090530Z 00000KT 05/05 A3034 RMK A01 T00470046  RH  099%=      5-min Rain = 0
KJU1 090531Z 00000KT 05/05 A3034 RMK A01 T00470045  RH  099%=      5-min Rain = 0
KJU1 090532Z 00000KT 05/05 A3034 RMK A01 T00470046  RH  099%=      5-min Rain = 0
KJU1 090533Z 00000KT 05/05 A3034 RMK A01 T00470046  RH  099%=      5-min Rain = 0
KJU1 090534Z 00000KT 05/05 A3034 RMK A01 T00480047  RH  099%=      5-min Rain = 0
KJU1 090535Z 00000KT 05/05 A3035 RMK A01 T00480047  RH  099%=      5-min Rain = 0
KJU1 090536Z 00000KT 05/05 A3035 RMK A01 T00480047  RH  099%=      5-min Rain = 0
KJU1 090537Z 00000KT 05/05 A3034 RMK A01 T00480047  RH  099%=      5-min Rain = 0
KJU1 090538Z 00000KT 05/05 A3034 RMK A01 T00480047  RH  099%=      5-min Rain = 0
KJU1 090539Z 00000KT 05/05 A3034 RMK A01 T00480047  RH  099%=      5-min Rain = 0
KJU1 090540Z 00000KT 05/05 A3034 RMK A01 T00480047  RH  099%=      5-min Rain = 0
KJU1 090541Z 00000KT 05/05 A3034 RMK A01 T00480047  RH  099%=      5-min Rain = 0
KJU1 090542Z 00000KT 05/05 A3034 RMK A01 T00490048  RH  099%=      5-min Rain = 0
KJU1 090543Z 00000KT 05/05 A3034 RMK A01 T00490048  RH  099%=      5-min Rain = 0
KJU1 090544Z 00000KT 05/05 A3034 RMK A01 T00480048  RH  099%=      5-min Rain = 0
KJU1 090545Z 00000KT 05/05 A3034 RMK A01 T00470046  RH  099%=      5-min Rain = 0
KJU1 090546Z 00000KT 05/05 A3034 RMK A01 T00470046  RH  099%=      5-min Rain = 0
KJU1 090547Z 19000KT 05/05 A3034 RMK A01 T00470046  RH  099%=      5-min Rain = 0
KJU1 090548Z 19001KT 05/05 A3034 RMK A01 T00470046  RH  099%=      5-min Rain = 0
KJU1 090549Z 20001KT 05/05 A3034 RMK A01 T00470046  RH  099%=      5-min Rain = 0
KJU1 090550Z 20002KT 05/05 A3034 RMK A01 T00460045  RH  099%=      5-min Rain = 0
KJU1 090551Z 21002KT 05/04 A3034 RMK A01 T00450044  RH  099%=      5-min Rain = 0
KJU1 090552Z 21001KT 05/04 A3034 RMK A01 T00450044  RH  099%=      5-min Rain = 0
KJU1 090553Z 21001KT 05/04 A3035 RMK A01 T00450044  RH  099%=      5-min Rain = 0
KJU1 090554Z 21001KT 05/05 A3035 RMK A01 T00460045  RH  099%=      5-min Rain = 0
KJU1 090555Z 21001KT 05/05 A3035 RMK A01 T00460045  RH  099%=      5-min Rain = 0
KJU1 090556Z 21001KT 05/05 A3035 RMK A01 T00460045  RH  099%=      5-min Rain = 0
KJU1 090557Z 20001KT 05/05 A3035 RMK A01 T00460045  RH  099%=      5-min Rain = 0
KJU1 090558Z 20001KT 05/05 A3035 RMK A01 T00460045  RH  099%=      5-min Rain = 0
KJU1 090559Z 20001KT 05/05 A3035 RMK A01 T00460046  RH  099%=      5-min Rain = 0

Page generated in 0.0765 seconds.